Time,TemperatureF,DewpointF,PressureIn,WindDirection,WindDirectionDegrees,WindSpeedMPH,WindSpeedGustMPH,Humidity,HourlyPrecipIn,Conditions,Clouds,dailyrainin,SoftwareType,DateUTC
2013-06-13 00:02:00,65.0,63.2,29.61,East,96,1.0,2.0,94,0.00,,,0.00,Wunderground v.1.15,2013-06-13 05:02:00,
2013-06-13 00:04:00,64.9,63.1,29.61,East,96,1.0,2.0,94,0.00,,,0.00,Wunderground v.1.15,2013-06-13 05:04:00,
2013-06-13 00:07:00,64.9,63.1,29.61,East,96,1.0,2.0,94,0.00,,,0.00,Wunderground v.1.15,2013-06-13 05:07:00,
2013-06-13 00:08:00,64.8,63.0,29.61,East,95,1.0,2.0,94,0.00,,,0.00,Wunderground v.1.15,2013-06-13 05:08:00,
2013-06-13 00:11:00,64.8,63.0,29.61,East,93,1.0,1.0,94,0.00,,,0.00,Wunderground v.1.15,2013-06-13 05:11:00,
2013-06-13 00:12:00,64.8,63.0,29.61,East,93,1.0,2.0,94,0.00,,,0.00,Wunderground v.1.15,2013-06-13 05:12:00,
2013-06-13 00:16:00,64.8,63.0,29.61,East,93,1.0,4.0,94,0.00,,,0.00,Wunderground v.1.15,2013-06-13 05:16:00,
2013-06-13 00:17:00,64.8,63.0,29.61,East,93,1.0,4.0,94,0.00,,,0.00,Wunderground v.1.15,2013-06-13 05:17:00,
2013-06-13 00:18:00,64.8,63.0,29.61,East,93,1.0,4.0,94,0.00,,,0.00,Wunderground v.1.15,2013-06-13 05:18:00,
2013-06-13 00:21:00,64.8,63.0,29.61,East,92,1.0,2.0,94,0.00,,,0.00,Wunderground v.1.15,2013-06-13 05:21:00,
2013-06-13 00:24:00,64.7,62.9,29.60,East,93,1.0,2.0,94,0.00,,,0.00,Wunderground v.1.15,2013-06-13 05:24:00,
2013-06-13 00:25:00,64.7,62.9,29.61,East,93,0.0,2.0,94,0.00,,,0.00,Wunderground v.1.15,2013-06-13 05:25:00,
2013-06-13 00:26:00,64.7,62.9,29.61,East,93,0.0,2.0,94,0.00,,,0.00,Wunderground v.1.15,2013-06-13 05:26:00,
2013-06-13 00:28:00,64.7,62.9,29.61,East,92,0.0,2.0,94,0.00,,,0.00,Wunderground v.1.15,2013-06-13 05:28:00,
2013-06-13 00:30:00,64.7,62.9,29.61,East,93,0.0,0.0,94,0.00,,,0.00,Wunderground v.1.15,2013-06-13 05:30:00,
2013-06-13 00:31:00,64.7,62.9,29.61,East,93,0.0,0.0,94,0.00,,,0.00,Wunderground v.1.15,2013-06-13 05:31:00,
2013-06-13 00:33:00,64.7,62.9,29.61,East,93,0.0,0.0,94,0.00,,,0.00,Wunderground v.1.15,2013-06-13 05:33:00,
2013-06-13 00:34:00,64.7,62.9,29.61,East,92,0.0,0.0,94,0.00,,,0.00,Wunderground v.1.15,2013-06-13 05:34:00,
2013-06-13 00:35:00,64.7,62.9,29.61,East,93,0.0,0.0,94,0.00,,,0.00,Wunderground v.1.15,2013-06-13 05:35:00,
2013-06-13 00:38:00,64.8,63.0,29.62,East,92,0.0,4.0,94,0.00,,,0.00,Wunderground v.1.15,2013-06-13 05:38:00,
2013-06-13 00:39:00,64.8,63.3,29.62,East,92,0.0,4.0,95,0.00,,,0.00,Wunderground v.1.15,2013-06-13 05:39:00,
2013-06-13 00:42:00,64.8,63.3,29.62,East,91,1.0,2.0,95,0.00,,,0.00,Wunderground v.1.15,2013-06-13 05:42:00,
2013-06-13 00:44:00,64.9,63.4,29.62,East,91,1.0,2.0,95,0.00,,,0.00,Wunderground v.1.15,2013-06-13 05:44:00,
2013-06-13 00:45:00,64.9,63.4,29.62,East,91,1.0,2.0,95,0.00,,,0.00,Wunderground v.1.15,2013-06-13 05:45:00,
2013-06-13 00:50:00,64.9,63.4,29.63,East,88,1.0,1.0,95,0.00,,,0.00,Wunderground v.1.15,2013-06-13 05:50:00,
2013-06-13 00:51:00,64.9,63.4,29.63,East,79,1.0,3.0,95,0.00,,,0.00,Wunderground v.1.15,2013-06-13 05:51:00,
2013-06-13 00:52:00,65.0,63.5,29.64,East,79,1.0,3.0,95,0.00,,,0.00,Wunderground v.1.15,2013-06-13 05:52:00,
2013-06-13 00:53:00,65.0,63.5,29.64,ENE,78,1.0,3.0,95,0.00,,,0.00,Wunderground v.1.15,2013-06-13 05:53:00,
2013-06-13 00:57:00,65.0,63.5,29.65,North,350,2.0,6.0,95,0.00,,,0.00,Wunderground v.1.15,2013-06-13 05:57:00,
2013-06-13 00:58:00,65.0,63.5,29.65,NNW,348,2.0,6.0,95,0.00,,,0.00,Wunderground v.1.15,2013-06-13 05:58:00,
2013-06-13 00:59:00,65.0,63.5,29.66,NNW,348,3.0,6.0,95,0.00,,,0.00,Wunderground v.1.15,2013-06-13 05:59:00,
2013-06-13 01:03:00,65.0,63.5,29.66,NNE,14,4.0,4.0,95,0.00,,,0.00,Wunderground v.1.15,2013-06-13 06:03:00,
2013-06-13 01:05:00,65.0,63.5,29.67,North,355,4.0,5.0,95,0.00,,,0.00,Wunderground v.1.15,2013-06-13 06:05:00,
2013-06-13 01:07:00,65.0,63.5,29.67,NNW,346,4.0,5.0,95,0.00,,,0.00,Wunderground v.1.15,2013-06-13 06:07:00,
2013-06-13 01:08:00,65.0,63.5,29.67,North,5,4.0,5.0,95,0.00,,,0.00,Wunderground v.1.15,2013-06-13 06:08:00,
2013-06-13 01:10:00,65.1,63.3,29.67,NNW,332,3.0,3.0,94,0.00,,,0.00,Wunderground v.1.15,2013-06-13 06:10:00,
2013-06-13 01:12:00,65.1,63.3,29.67,NW,319,4.0,5.0,94,0.00,,,0.00,Wunderground v.1.15,2013-06-13 06:12:00,
2013-06-13 01:13:00,65.2,63.4,29.67,NNW,340,3.0,5.0,94,0.00,,,0.00,Wunderground v.1.15,2013-06-13 06:13:00,
2013-06-13 01:15:00,65.2,63.4,29.68,NNW,334,3.0,5.0,94,0.63,,,0.02,Wunderground v.1.15,2013-06-13 06:15:00,
2013-06-13 01:17:00,65.2,63.4,29.69,NW,313,4.0,5.0,94,0.64,,,0.04,Wunderground v.1.15,2013-06-13 06:17:00,
2013-06-13 01:18:00,65.2,63.4,29.69,NNW,331,4.0,5.0,94,0.64,,,0.05,Wunderground v.1.15,2013-06-13 06:18:00,
2013-06-13 01:21:00,65.2,63.4,29.70,NNW,336,4.0,4.0,94,0.79,,,0.10,Wunderground v.1.15,2013-06-13 06:21:00,
2013-06-13 01:22:00,65.2,63.4,29.70,NNW,336,3.0,4.0,94,0.57,,,0.10,Wunderground v.1.15,2013-06-13 06:22:00,
2013-06-13 01:23:00,65.2,63.4,29.70,NW,320,3.0,4.0,94,0.49,,,0.11,Wunderground v.1.15,2013-06-13 06:23:00,
2013-06-13 01:24:00,65.2,63.4,29.70,NW,320,3.0,4.0,94,0.51,,,0.12,Wunderground v.1.15,2013-06-13 06:24:00,
2013-06-13 01:25:00,65.2,63.4,29.70,NW,319,3.0,4.0,94,0.34,,,0.12,Wunderground v.1.15,2013-06-13 06:25:00,
2013-06-13 01:26:00,65.2,63.4,29.71,NW,320,3.0,4.0,94,0.19,,,0.12,Wunderground v.1.15,2013-06-13 06:26:00,
2013-06-13 01:30:00,65.2,63.4,29.71,NW,320,1.0,1.0,94,0.13,,,0.13,Wunderground v.1.15,2013-06-13 06:30:00,
2013-06-13 01:31:00,65.2,63.4,29.70,NW,320,1.0,2.0,94,0.17,,,0.14,Wunderground v.1.15,2013-06-13 06:31:00,
2013-06-13 01:32:00,65.2,63.4,29.71,NW,320,1.0,2.0,94,0.17,,,0.14,Wunderground v.1.15,2013-06-13 06:32:00,
2013-06-13 01:33:00,65.2,63.7,29.70,NW,320,1.0,2.0,95,0.17,,,0.14,Wunderground v.1.15,2013-06-13 06:33:00,
2013-06-13 01:35:00,65.2,63.7,29.70,NW,320,1.0,2.0,95,0.16,,,0.14,Wunderground v.1.15,2013-06-13 06:35:00,
2013-06-13 01:38:00,65.2,63.7,29.70,NW,320,1.0,2.0,95,0.09,,,0.14,Wunderground v.1.15,2013-06-13 06:38:00,
2013-06-13 01:39:00,65.2,63.7,29.70,NW,320,1.0,2.0,95,0.08,,,0.14,Wunderground v.1.15,2013-06-13 06:39:00,
2013-06-13 01:40:00,65.1,63.6,29.70,NW,320,0.0,0.0,95,0.07,,,0.14,Wunderground v.1.15,2013-06-13 06:40:00,
2013-06-13 01:42:00,65.2,63.7,29.71,NW,320,0.0,0.0,95,0.06,,,0.14,Wunderground v.1.15,2013-06-13 06:42:00,
2013-06-13 01:44:00,65.1,63.6,29.71,NW,320,0.0,0.0,95,0.05,,,0.14,Wunderground v.1.15,2013-06-13 06:44:00,
2013-06-13 01:47:00,65.1,63.6,29.71,NW,320,0.0,2.0,95,0.04,,,0.14,Wunderground v.1.15,2013-06-13 06:47:00,
2013-06-13 01:49:00,65.1,63.6,29.71,NW,320,0.0,2.0,95,0.00,,,0.14,Wunderground v.1.15,2013-06-13 06:49:00,
2013-06-13 01:50:00,65.2,63.7,29.71,NW,322,1.0,3.0,95,0.00,,,0.14,Wunderground v.1.15,2013-06-13 06:50:00,
2013-06-13 01:52:00,65.1,63.6,29.71,NW,321,1.0,3.0,95,0.00,,,0.14,Wunderground v.1.15,2013-06-13 06:52:00,
2013-06-13 01:55:00,65.2,63.7,29.71,NNW,341,1.0,3.0,95,0.00,,,0.14,Wunderground v.1.15,2013-06-13 06:55:00,
2013-06-13 01:58:00,65.1,63.6,29.71,North,360,2.0,3.0,95,0.00,,,0.14,Wunderground v.1.15,2013-06-13 06:58:00,
2013-06-13 02:00:00,65.1,63.6,29.71,North,360,2.0,2.0,95,0.00,,,0.14,Wunderground v.1.15,2013-06-13 07:00:00,
2013-06-13 02:02:00,65.1,63.6,29.71,North,5,2.0,2.0,95,0.00,,,0.14,Wunderground v.1.15,2013-06-13 07:02:00,
2013-06-13 02:05:00,65.0,63.5,29.71,North,355,2.0,3.0,95,0.00,,,0.14,Wunderground v.1.15,2013-06-13 07:05:00,
2013-06-13 02:07:00,65.0,63.5,29.71,North,355,2.0,3.0,95,0.00,,,0.14,Wunderground v.1.15,2013-06-13 07:07:00,
2013-06-13 02:09:00,64.9,63.4,29.71,North,355,2.0,3.0,95,0.00,,,0.14,Wunderground v.1.15,2013-06-13 07:09:00,
2013-06-13 02:10:00,64.9,63.4,29.71,North,355,2.0,2.0,95,0.00,,,0.14,Wunderground v.1.15,2013-06-13 07:10:00,
2013-06-13 02:11:00,64.9,63.4,29.71,North,355,1.0,2.0,95,0.00,,,0.14,Wunderground v.1.15,2013-06-13 07:11:00,
2013-06-13 02:15:00,64.8,63.3,29.71,North,355,1.0,3.0,95,0.00,,,0.14,Wunderground v.1.15,2013-06-13 07:15:00,
2013-06-13 02:16:00,64.9,63.4,29.71,North,355,1.0,3.0,95,0.00,,,0.14,Wunderground v.1.15,2013-06-13 07:16:00,
2013-06-13 02:17:00,64.8,63.3,29.71,North,355,1.0,3.0,95,0.00,,,0.14,Wunderground v.1.15,2013-06-13 07:17:00,
2013-06-13 02:19:00,64.8,63.3,29.71,North,360,2.0,3.0,95,0.00,,,0.14,Wunderground v.1.15,2013-06-13 07:19:00,
2013-06-13 02:22:00,64.8,63.3,29.72,NNE,17,2.0,4.0,95,0.00,,,0.14,Wunderground v.1.15,2013-06-13 07:22:00,
2013-06-13 02:23:00,64.8,63.3,29.72,NNE,16,2.0,4.0,95,0.00,,,0.14,Wunderground v.1.15,2013-06-13 07:23:00,
2013-06-13 02:24:00,64.7,63.2,29.72,NNE,16,2.0,4.0,95,0.00,,,0.14,Wunderground v.1.15,2013-06-13 07:24:00,
2013-06-13 02:28:00,64.7,62.9,29.72,North,5,3.0,4.0,94,0.00,,,0.14,Wunderground v.1.15,2013-06-13 07:28:00,
2013-06-13 02:29:00,64.7,62.9,29.72,NNE,20,3.0,4.0,94,0.00,,,0.14,Wunderground v.1.15,2013-06-13 07:29:00,
2013-06-13 02:30:00,64.6,62.8,29.72,NNE,19,3.0,4.0,94,0.00,,,0.14,Wunderground v.1.15,2013-06-13 07:30:00,
2013-06-13 02:31:00,64.6,62.8,29.72,NNE,26,3.0,4.0,94,0.00,,,0.14,Wunderground v.1.15,2013-06-13 07:31:00,
2013-06-13 02:32:00,64.6,62.8,29.72,NNE,26,3.0,4.0,94,0.00,,,0.14,Wunderground v.1.15,2013-06-13 07:32:00,
2013-06-13 02:33:00,64.6,62.8,29.72,NNE,26,3.0,4.0,94,0.00,,,0.14,Wunderground v.1.15,2013-06-13 07:33:00,
2013-06-13 02:35:00,64.5,63.0,29.72,NNE,14,3.0,4.0,95,0.00,,,0.14,Wunderground v.1.15,2013-06-13 07:35:00,
2013-06-13 02:38:00,64.5,63.0,29.72,NNE,14,2.0,4.0,95,0.00,,,0.14,Wunderground v.1.15,2013-06-13 07:38:00,
2013-06-13 02:41:00,64.5,63.0,29.72,NNE,26,2.0,2.0,95,0.00,,,0.14,Wunderground v.1.15,2013-06-13 07:41:00,
2013-06-13 02:44:00,64.5,63.0,29.72,NNE,32,2.0,5.0,95,0.00,,,0.14,Wunderground v.1.15,2013-06-13 07:44:00,
2013-06-13 02:46:00,64.4,62.9,29.72,NNE,29,2.0,5.0,95,0.00,,,0.14,Wunderground v.1.15,2013-06-13 07:46:00,
2013-06-13 02:47:00,64.4,62.9,29.73,NNE,29,2.0,5.0,95,0.00,,,0.14,Wunderground v.1.15,2013-06-13 07:47:00,
2013-06-13 02:49:00,64.4,62.9,29.73,NNE,28,3.0,5.0,95,0.00,,,0.14,Wunderground v.1.15,2013-06-13 07:49:00,
2013-06-13 02:51:00,64.4,62.9,29.73,NNE,27,2.0,3.0,95,0.00,,,0.14,Wunderground v.1.15,2013-06-13 07:51:00,
2013-06-13 02:52:00,64.4,62.9,29.73,NNE,28,2.0,3.0,95,0.00,,,0.14,Wunderground v.1.15,2013-06-13 07:52:00,
2013-06-13 02:53:00,64.4,62.9,29.73,NNE,27,2.0,3.0,95,0.00,,,0.14,Wunderground v.1.15,2013-06-13 07:53:00,
2013-06-13 02:56:00,64.4,62.9,29.73,North,5,2.0,3.0,95,0.00,,,0.14,Wunderground v.1.15,2013-06-13 07:56:00,
2013-06-13 02:57:00,64.4,62.9,29.73,North,5,2.0,3.0,95,0.00,,,0.14,Wunderground v.1.15,2013-06-13 07:57:00,
2013-06-13 02:59:00,64.4,62.9,29.73,North,5,2.0,3.0,95,0.00,,,0.14,Wunderground v.1.15,2013-06-13 07:59:00,
2013-06-13 03:04:00,64.4,62.9,29.74,North,360,2.0,4.0,95,0.00,,,0.14,Wunderground v.1.15,2013-06-13 08:04:00,
2013-06-13 03:05:00,64.4,62.9,29.74,North,9,2.0,5.0,95,0.00,,,0.14,Wunderground v.1.15,2013-06-13 08:05:00,
2013-06-13 03:06:00,64.4,62.9,29.74,NNE,12,2.0,5.0,95,0.00,,,0.14,Wunderground v.1.15,2013-06-13 08:06:00,
2013-06-13 03:07:00,64.4,62.9,29.74,NNE,12,2.0,5.0,95,0.00,,,0.14,Wunderground v.1.15,2013-06-13 08:07:00,
2013-06-13 03:10:00,64.4,62.9,29.74,NNE,13,2.0,3.0,95,0.00,,,0.14,Wunderground v.1.15,2013-06-13 08:10:00,
2013-06-13 03:13:00,64.4,62.9,29.74,NNE,12,2.0,3.0,95,0.00,,,0.14,Wunderground v.1.15,2013-06-13 08:13:00,
2013-06-13 03:14:00,64.3,62.8,29.74,NNE,12,2.0,3.0,95,0.00,,,0.14,Wunderground v.1.15,2013-06-13 08:14:00,
2013-06-13 03:17:00,64.4,62.9,29.74,NNE,12,1.0,3.0,95,0.00,,,0.14,Wunderground v.1.15,2013-06-13 08:17:00,
2013-06-13 03:18:00,64.4,62.9,29.74,NNE,12,1.0,3.0,95,0.00,,,0.14,Wunderground v.1.15,2013-06-13 08:18:00,
2013-06-13 03:19:00,64.4,62.9,29.74,NNE,12,1.0,3.0,95,0.00,,,0.14,Wunderground v.1.15,2013-06-13 08:19:00,
2013-06-13 03:20:00,64.4,62.9,29.74,NNE,12,1.0,2.0,95,0.00,,,0.14,Wunderground v.1.15,2013-06-13 08:20:00,
2013-06-13 03:21:00,64.4,62.9,29.74,North,11,1.0,3.0,95,0.00,,,0.14,Wunderground v.1.15,2013-06-13 08:21:00,
2013-06-13 03:22:00,64.4,62.9,29.74,North,11,1.0,3.0,95,0.00,,,0.14,Wunderground v.1.15,2013-06-13 08:22:00,
2013-06-13 03:26:00,64.4,62.9,29.74,North,5,2.0,4.0,95,0.00,,,0.14,Wunderground v.1.15,2013-06-13 08:26:00,
2013-06-13 03:27:00,64.5,63.0,29.74,North,9,2.0,4.0,95,0.00,,,0.14,Wunderground v.1.15,2013-06-13 08:27:00,
2013-06-13 03:29:00,64.5,63.0,29.74,North,355,3.0,4.0,95,0.00,,,0.14,Wunderground v.1.15,2013-06-13 08:29:00,
2013-06-13 03:32:00,64.5,62.7,29.74,North,9,4.0,9.0,94,0.00,,,0.14,Wunderground v.1.15,2013-06-13 08:32:00,
2013-06-13 03:35:00,64.4,62.6,29.75,NNW,341,5.0,11.0,94,0.00,,,0.14,Wunderground v.1.15,2013-06-13 08:35:00,
2013-06-13 03:36:00,64.3,62.5,29.75,North,5,6.0,11.0,94,0.00,,,0.14,Wunderground v.1.15,2013-06-13 08:36:00,
2013-06-13 03:37:00,64.3,62.5,29.75,NNW,329,6.0,11.0,94,0.00,,,0.14,Wunderground v.1.15,2013-06-13 08:37:00,
2013-06-13 03:38:00,64.3,62.5,29.75,NNW,332,6.0,11.0,94,0.00,,,0.14,Wunderground v.1.15,2013-06-13 08:38:00,
2013-06-13 03:42:00,64.1,62.3,29.75,NNW,338,6.0,10.0,94,0.00,,,0.14,Wunderground v.1.15,2013-06-13 08:42:00,
2013-06-13 03:43:00,64.1,62.3,29.75,NW,321,6.0,10.0,94,0.00,,,0.14,Wunderground v.1.15,2013-06-13 08:43:00,
2013-06-13 03:44:00,64.1,62.3,29.75,NNW,342,6.0,10.0,94,0.00,,,0.14,Wunderground v.1.15,2013-06-13 08:44:00,
2013-06-13 03:47:00,64.0,62.2,29.75,North,360,6.0,10.0,94,0.00,,,0.14,Wunderground v.1.15,2013-06-13 08:47:00,
2013-06-13 03:49:00,64.0,62.2,29.75,NNW,340,6.0,10.0,94,0.00,,,0.14,Wunderground v.1.15,2013-06-13 08:49:00,
2013-06-13 03:50:00,63.9,62.1,29.75,NNW,339,6.0,6.0,94,0.00,,,0.14,Wunderground v.1.15,2013-06-13 08:50:00,
2013-06-13 03:53:00,63.9,62.1,29.75,NNE,26,6.0,11.0,94,0.00,,,0.14,Wunderground v.1.15,2013-06-13 08:53:00,
2013-06-13 03:54:00,63.8,62.0,29.75,North,9,6.0,11.0,94,0.00,,,0.14,Wunderground v.1.15,2013-06-13 08:54:00,
2013-06-13 03:58:00,63.8,62.0,29.75,North,360,6.0,11.0,94,0.00,,,0.14,Wunderground v.1.15,2013-06-13 08:58:00,
2013-06-13 03:59:00,63.7,61.9,29.75,North,9,6.0,11.0,94,0.00,,,0.14,Wunderground v.1.15,2013-06-13 08:59:00,
2013-06-13 04:01:00,63.7,61.9,29.76,NNW,330,6.0,6.0,94,0.00,,,0.14,Wunderground v.1.15,2013-06-13 09:01:00,
2013-06-13 04:04:00,63.6,61.8,29.75,NNE,13,5.0,6.0,94,0.00,,,0.14,Wunderground v.1.15,2013-06-13 09:04:00,
2013-06-13 04:05:00,63.6,61.8,29.75,NNE,18,5.0,11.0,94,0.00,,,0.14,Wunderground v.1.15,2013-06-13 09:05:00,
2013-06-13 04:06:00,63.5,61.7,29.75,North,355,5.0,11.0,94,0.00,,,0.14,Wunderground v.1.15,2013-06-13 09:06:00,
2013-06-13 04:07:00,63.5,61.7,29.75,NNW,348,5.0,11.0,94,0.00,,,0.14,Wunderground v.1.15,2013-06-13 09:07:00,
2013-06-13 04:09:00,63.5,61.7,29.75,NNW,337,5.0,11.0,94,0.00,,,0.14,Wunderground v.1.15,2013-06-13 09:09:00,
2013-06-13 04:13:00,63.4,61.6,29.75,NNW,347,4.0,5.0,94,0.00,,,0.14,Wunderground v.1.15,2013-06-13 09:13:00,
2013-06-13 04:14:00,63.4,61.6,29.75,NNW,345,4.0,5.0,94,0.00,,,0.14,Wunderground v.1.15,2013-06-13 09:14:00,
2013-06-13 04:19:00,63.4,61.6,29.76,NNE,18,4.0,7.0,94,0.00,,,0.14,Wunderground v.1.15,2013-06-13 09:19:00,
2013-06-13 04:20:00,63.4,61.6,29.76,NNW,338,4.0,4.0,94,0.00,,,0.14,Wunderground v.1.15,2013-06-13 09:20:00,
2013-06-13 04:21:00,63.3,61.5,29.76,NW,319,4.0,7.0,94,0.00,,,0.14,Wunderground v.1.15,2013-06-13 09:21:00,
2013-06-13 04:22:00,63.3,61.5,29.76,NW,323,4.0,7.0,94,0.00,,,0.14,Wunderground v.1.15,2013-06-13 09:22:00,
2013-06-13 04:25:00,63.2,61.4,29.76,NNW,344,5.0,7.0,94,0.00,,,0.14,Wunderground v.1.15,2013-06-13 09:25:00,
2013-06-13 04:26:00,63.1,61.0,29.77,North,360,5.0,7.0,93,0.00,,,0.14,Wunderground v.1.15,2013-06-13 09:26:00,
2013-06-13 04:29:00,63.0,60.9,29.77,North,11,6.0,12.0,93,0.00,,,0.14,Wunderground v.1.15,2013-06-13 09:29:00,
2013-06-13 04:31:00,62.8,60.7,29.76,North,5,6.0,7.0,93,0.00,,,0.14,Wunderground v.1.15,2013-06-13 09:31:00,
2013-06-13 04:34:00,62.6,60.5,29.77,NNE,15,6.0,7.0,93,0.00,,,0.14,Wunderground v.1.15,2013-06-13 09:34:00,
2013-06-13 04:36:00,62.5,60.1,29.77,NNW,342,6.0,10.0,92,0.00,,,0.14,Wunderground v.1.15,2013-06-13 09:36:00,
2013-06-13 04:38:00,62.5,60.1,29.77,North,349,6.0,10.0,92,0.00,,,0.14,Wunderground v.1.15,2013-06-13 09:38:00,
2013-06-13 04:39:00,62.4,60.0,29.77,NNW,333,5.0,10.0,92,0.00,,,0.14,Wunderground v.1.15,2013-06-13 09:39:00,
2013-06-13 04:41:00,62.3,59.9,29.77,NNW,348,5.0,5.0,92,0.00,,,0.14,Wunderground v.1.15,2013-06-13 09:41:00,
2013-06-13 04:45:00,62.2,59.5,29.78,NNW,341,5.0,5.0,91,0.00,,,0.14,Wunderground v.1.15,2013-06-13 09:45:00,
2013-06-13 04:46:00,62.1,59.4,29.78,NNE,13,5.0,5.0,91,0.00,,,0.14,Wunderground v.1.15,2013-06-13 09:46:00,
2013-06-13 04:47:00,62.1,59.4,29.78,NNW,346,4.0,5.0,91,0.00,,,0.14,Wunderground v.1.15,2013-06-13 09:47:00,
2013-06-13 04:48:00,62.0,59.3,29.78,North,11,4.0,6.0,91,0.00,,,0.14,Wunderground v.1.15,2013-06-13 09:48:00,
2013-06-13 04:50:00,62.0,59.3,29.78,North,10,4.0,4.0,91,0.00,,,0.14,Wunderground v.1.15,2013-06-13 09:50:00,
2013-06-13 04:53:00,61.9,58.9,29.78,North,11,4.0,5.0,90,0.00,,,0.14,Wunderground v.1.15,2013-06-13 09:53:00,
2013-06-13 04:54:00,61.8,58.8,29.78,North,355,4.0,5.0,90,0.00,,,0.14,Wunderground v.1.15,2013-06-13 09:54:00,
2013-06-13 04:55:00,61.8,58.8,29.78,North,11,4.0,5.0,90,0.00,,,0.14,Wunderground v.1.15,2013-06-13 09:55:00,
2013-06-13 04:56:00,61.8,58.8,29.78,NNE,30,4.0,5.0,90,0.00,,,0.14,Wunderground v.1.15,2013-06-13 09:56:00,
2013-06-13 04:58:00,61.7,58.7,29.78,NNE,22,4.0,7.0,90,0.00,,,0.14,Wunderground v.1.15,2013-06-13 09:58:00,
2013-06-13 05:00:00,61.7,58.7,29.78,North,350,4.0,11.0,90,0.00,,,0.14,Wunderground v.1.15,2013-06-13 10:00:00,
2013-06-13 05:02:00,61.6,58.3,29.78,North,350,4.0,11.0,89,0.00,,,0.14,Wunderground v.1.15,2013-06-13 10:02:00,
2013-06-13 05:03:00,61.5,58.2,29.78,NNE,28,5.0,11.0,89,0.00,,,0.14,Wunderground v.1.15,2013-06-13 10:03:00,
2013-06-13 05:04:00,61.5,58.2,29.78,NNE,28,4.0,11.0,89,0.00,,,0.14,Wunderground v.1.15,2013-06-13 10:04:00,
2013-06-13 05:07:00,61.4,58.1,29.78,NNE,25,4.0,11.0,89,0.00,,,0.14,Wunderground v.1.15,2013-06-13 10:07:00,
2013-06-13 05:09:00,61.4,58.1,29.78,NNE,15,4.0,11.0,89,0.00,,,0.14,Wunderground v.1.15,2013-06-13 10:09:00,
2013-06-13 05:11:00,61.3,58.0,29.78,North,11,3.0,7.0,89,0.00,,,0.14,Wunderground v.1.15,2013-06-13 10:11:00,
2013-06-13 05:12:00,61.3,58.0,29.78,North,5,3.0,7.0,89,0.00,,,0.14,Wunderground v.1.15,2013-06-13 10:12:00,
2013-06-13 05:14:00,61.2,57.9,29.79,North,11,3.0,7.0,89,0.00,,,0.14,Wunderground v.1.15,2013-06-13 10:14:00,
2013-06-13 05:17:00,61.1,57.8,29.79,North,11,3.0,7.0,89,0.00,,,0.14,Wunderground v.1.15,2013-06-13 10:17:00,
2013-06-13 05:18:00,61.1,57.8,29.79,North,5,3.0,7.0,89,0.00,,,0.14,Wunderground v.1.15,2013-06-13 10:18:00,
2013-06-13 05:19:00,61.1,57.8,29.79,North,9,3.0,7.0,89,0.00,,,0.14,Wunderground v.1.15,2013-06-13 10:19:00,
2013-06-13 05:22:00,61.0,57.7,29.79,North,355,3.0,3.0,89,0.00,,,0.14,Wunderground v.1.15,2013-06-13 10:22:00,
2013-06-13 05:24:00,61.0,57.7,29.79,North,355,3.0,4.0,89,0.00,,,0.14,Wunderground v.1.15,2013-06-13 10:24:00,
2013-06-13 05:28:00,60.9,57.6,29.80,NNW,339,3.0,5.0,89,0.00,,,0.14,Wunderground v.1.15,2013-06-13 10:28:00,
2013-06-13 05:30:00,60.9,57.6,29.80,NNW,337,4.0,4.0,89,0.00,,,0.14,Wunderground v.1.15,2013-06-13 10:30:00,
2013-06-13 05:31:00,60.8,57.5,29.80,NNW,335,4.0,6.0,89,0.00,,,0.14,Wunderground v.1.15,2013-06-13 10:31:00,
2013-06-13 05:33:00,60.8,57.5,29.80,North,355,4.0,6.0,89,0.00,,,0.14,Wunderground v.1.15,2013-06-13 10:33:00,
2013-06-13 05:35:00,60.8,57.5,29.80,North,355,4.0,6.0,89,0.00,,,0.14,Wunderground v.1.15,2013-06-13 10:35:00,
2013-06-13 05:37:00,60.8,57.2,29.80,North,360,4.0,6.0,88,0.00,,,0.14,Wunderground v.1.15,2013-06-13 10:37:00,
2013-06-13 05:39:00,60.8,57.2,29.80,North,360,4.0,6.0,88,0.00,,,0.14,Wunderground v.1.15,2013-06-13 10:39:00,
2013-06-13 05:41:00,60.7,57.1,29.80,North,351,3.0,4.0,88,0.00,,,0.14,Wunderground v.1.15,2013-06-13 10:41:00,
2013-06-13 05:43:00,60.7,57.1,29.80,NNW,340,3.0,6.0,88,0.00,,,0.14,Wunderground v.1.15,2013-06-13 10:43:00,
2013-06-13 05:48:00,60.7,57.1,29.81,North,355,4.0,6.0,88,0.00,,,0.14,Wunderground v.1.15,2013-06-13 10:48:00,
2013-06-13 05:49:00,60.7,57.1,29.81,North,11,4.0,6.0,88,0.00,,,0.14,Wunderground v.1.15,2013-06-13 10:49:00,
2013-06-13 05:53:00,60.6,57.0,29.81,North,11,4.0,4.0,88,0.00,,,0.14,Wunderground v.1.15,2013-06-13 10:53:00,
2013-06-13 05:54:00,60.6,57.0,29.81,North,9,4.0,4.0,88,0.00,,,0.14,Wunderground v.1.15,2013-06-13 10:54:00,
2013-06-13 05:59:00,60.6,57.0,29.82,North,5,4.0,4.0,88,0.00,,,0.14,Wunderground v.1.15,2013-06-13 10:59:00,
2013-06-13 06:02:00,60.5,56.9,29.82,NNW,348,3.0,4.0,88,0.00,,,0.14,Wunderground v.1.15,2013-06-13 11:02:00,
2013-06-13 06:03:00,60.5,56.9,29.82,North,5,3.0,5.0,88,0.00,,,0.14,Wunderground v.1.15,2013-06-13 11:03:00,
2013-06-13 06:05:00,60.5,56.9,29.82,NNE,19,3.0,5.0,88,0.00,,,0.14,Wunderground v.1.15,2013-06-13 11:05:00,
2013-06-13 06:06:00,60.5,56.9,29.82,NNE,18,3.0,5.0,88,0.00,,,0.14,Wunderground v.1.15,2013-06-13 11:06:00,
2013-06-13 06:07:00,60.5,56.9,29.82,NNE,15,3.0,5.0,88,0.00,,,0.14,Wunderground v.1.15,2013-06-13 11:07:00,
2013-06-13 06:08:00,60.5,56.9,29.82,NNE,15,3.0,5.0,88,0.00,,,0.14,Wunderground v.1.15,2013-06-13 11:08:00,
2013-06-13 06:10:00,60.5,56.9,29.82,North,10,3.0,5.0,88,0.00,,,0.14,Wunderground v.1.15,2013-06-13 11:10:00,
2013-06-13 06:11:00,60.4,56.8,29.82,North,10,3.0,5.0,88,0.00,,,0.14,Wunderground v.1.15,2013-06-13 11:11:00,
2013-06-13 06:13:00,60.4,56.8,29.82,North,5,3.0,5.0,88,0.00,,,0.14,Wunderground v.1.15,2013-06-13 11:13:00,
2013-06-13 06:15:00,60.5,56.9,29.83,NNW,331,3.0,5.0,88,0.00,,,0.14,Wunderground v.1.15,2013-06-13 11:15:00,
2013-06-13 06:16:00,60.5,56.9,29.83,NNW,327,3.0,5.0,88,0.00,,,0.14,Wunderground v.1.15,2013-06-13 11:16:00,
2013-06-13 06:18:00,60.5,56.9,29.83,NNW,345,3.0,5.0,88,0.00,,,0.14,Wunderground v.1.15,2013-06-13 11:18:00,
2013-06-13 06:22:00,60.5,56.9,29.84,NNW,343,4.0,6.0,88,0.00,,,0.14,Wunderground v.1.15,2013-06-13 11:22:00,
2013-06-13 06:26:00,60.6,57.0,29.83,NNW,333,4.0,6.0,88,0.00,,,0.14,Wunderground v.1.15,2013-06-13 11:26:00,
2013-06-13 06:27:00,60.6,57.0,29.83,NNW,333,4.0,6.0,88,0.00,,,0.14,Wunderground v.1.15,2013-06-13 11:27:00,
2013-06-13 06:28:00,60.7,57.1,29.83,NNW,342,4.0,6.0,88,0.00,,,0.14,Wunderground v.1.15,2013-06-13 11:28:00,
2013-06-13 06:30:00,60.7,57.1,29.83,North,349,4.0,4.0,88,0.00,,,0.14,Wunderground v.1.15,2013-06-13 11:30:00,
2013-06-13 06:32:00,60.7,57.1,29.83,North,355,4.0,7.0,88,0.00,,,0.14,Wunderground v.1.15,2013-06-13 11:32:00,
2013-06-13 06:33:00,60.7,57.1,29.83,NNW,338,4.0,7.0,88,0.00,,,0.14,Wunderground v.1.15,2013-06-13 11:33:00,
2013-06-13 06:34:00,60.8,57.2,29.83,NNW,328,4.0,7.0,88,0.00,,,0.14,Wunderground v.1.15,2013-06-13 11:34:00,
2013-06-13 06:37:00,60.9,57.3,29.84,North,351,4.0,10.0,88,0.00,,,0.14,Wunderground v.1.15,2013-06-13 11:37:00,
2013-06-13 06:40:00,61.0,57.4,29.84,NNW,329,5.0,5.0,88,0.00,,,0.14,Wunderground v.1.15,2013-06-13 11:40:00,
2013-06-13 06:42:00,61.1,57.2,29.84,NW,325,4.0,5.0,87,0.00,,,0.14,Wunderground v.1.15,2013-06-13 11:42:00,
2013-06-13 06:43:00,61.1,57.2,29.84,NNW,344,4.0,5.0,87,0.00,,,0.14,Wunderground v.1.15,2013-06-13 11:43:00,
2013-06-13 06:44:00,61.2,57.3,29.85,NNW,346,4.0,5.0,87,0.00,,,0.14,Wunderground v.1.15,2013-06-13 11:44:00,
2013-06-13 06:47:00,61.2,57.3,29.85,NW,325,4.0,9.0,87,0.00,,,0.14,Wunderground v.1.15,2013-06-13 11:47:00,
2013-06-13 06:48:00,61.3,57.4,29.85,NNW,342,4.0,11.0,87,0.00,,,0.14,Wunderground v.1.15,2013-06-13 11:48:00,
2013-06-13 06:51:00,61.5,57.3,29.85,NNW,329,5.0,5.0,86,0.00,,,0.14,Wunderground v.1.15,2013-06-13 11:51:00,
2013-06-13 06:52:00,61.5,57.3,29.86,NNW,346,5.0,5.0,86,0.00,,,0.14,Wunderground v.1.15,2013-06-13 11:52:00,
2013-06-13 06:53:00,61.6,57.4,29.86,North,350,5.0,7.0,86,0.00,,,0.14,Wunderground v.1.15,2013-06-13 11:53:00,
2013-06-13 06:56:00,61.8,57.6,29.86,NNW,328,6.0,7.0,86,0.00,,,0.14,Wunderground v.1.15,2013-06-13 11:56:00,
2013-06-13 06:58:00,61.9,57.7,29.86,NNW,330,6.0,12.0,86,0.00,,,0.14,Wunderground v.1.15,2013-06-13 11:58:00,
2013-06-13 07:00:00,62.0,57.8,29.86,NNW,330,6.0,6.0,86,0.00,,,0.14,Wunderground v.1.15,2013-06-13 12:00:00,
2013-06-13 07:01:00,62.1,57.9,29.86,NNW,337,6.0,6.0,86,0.00,,,0.14,Wunderground v.1.15,2013-06-13 12:01:00,
2013-06-13 07:02:00,62.1,57.9,29.86,NNE,22,6.0,6.0,86,0.00,,,0.14,Wunderground v.1.15,2013-06-13 12:02:00,
2013-06-13 07:04:00,62.2,57.6,29.86,NNW,338,6.0,9.0,85,0.00,,,0.14,Wunderground v.1.15,2013-06-13 12:04:00,
2013-06-13 07:06:00,62.3,57.7,29.86,NW,317,5.0,9.0,85,0.00,,,0.14,Wunderground v.1.15,2013-06-13 12:06:00,
2013-06-13 07:09:00,62.5,57.9,29.86,NNW,336,5.0,9.0,85,0.00,,,0.14,Wunderground v.1.15,2013-06-13 12:09:00,
2013-06-13 07:10:00,62.6,58.0,29.86,NNW,344,5.0,7.0,85,0.00,,,0.14,Wunderground v.1.15,2013-06-13 12:10:00,
2013-06-13 07:11:00,62.6,57.7,29.86,NNW,345,5.0,7.0,84,0.00,,,0.14,Wunderground v.1.15,2013-06-13 12:11:00,
2013-06-13 07:14:00,62.8,57.9,29.86,NNW,334,5.0,12.0,84,0.00,,,0.14,Wunderground v.1.15,2013-06-13 12:14:00,
2013-06-13 07:15:00,62.8,57.9,29.86,NNW,334,5.0,12.0,84,0.00,,,0.14,Wunderground v.1.15,2013-06-13 12:15:00,
2013-06-13 07:16:00,62.9,58.0,29.86,NNW,338,5.0,12.0,84,0.00,,,0.14,Wunderground v.1.15,2013-06-13 12:16:00,
2013-06-13 07:19:00,63.0,57.8,29.86,NNW,339,6.0,12.0,83,0.00,,,0.14,Wunderground v.1.15,2013-06-13 12:19:00,
2013-06-13 07:20:00,63.1,57.9,29.86,NNW,338,6.0,6.0,83,0.00,,,0.14,Wunderground v.1.15,2013-06-13 12:20:00,
2013-06-13 07:22:00,63.2,57.9,29.86,NNE,13,5.0,6.0,83,0.00,,,0.14,Wunderground v.1.15,2013-06-13 12:22:00,
2013-06-13 07:24:00,63.3,58.0,29.86,NNE,20,5.0,6.0,83,0.00,,,0.14,Wunderground v.1.15,2013-06-13 12:24:00,
2013-06-13 07:26:00,63.4,58.1,29.86,NNW,346,5.0,7.0,83,0.00,,,0.14,Wunderground v.1.15,2013-06-13 12:26:00,
2013-06-13 07:28:00,63.5,57.9,29.86,NNW,334,5.0,7.0,82,0.00,,,0.14,Wunderground v.1.15,2013-06-13 12:28:00,
2013-06-13 07:29:00,63.5,57.9,29.87,North,351,5.0,7.0,82,0.00,,,0.14,Wunderground v.1.15,2013-06-13 12:29:00,
2013-06-13 07:32:00,63.7,57.8,29.87,NNW,348,5.0,5.0,81,0.00,,,0.14,Wunderground v.1.15,2013-06-13 12:32:00,
2013-06-13 07:33:00,63.8,58.2,29.87,NNW,338,5.0,5.0,82,0.00,,,0.14,Wunderground v.1.15,2013-06-13 12:33:00,
2013-06-13 07:35:00,63.9,58.3,29.87,NNW,328,5.0,5.0,82,0.00,,,0.14,Wunderground v.1.15,2013-06-13 12:35:00,
2013-06-13 07:36:00,64.1,58.1,29.87,North,351,5.0,6.0,81,0.00,,,0.14,Wunderground v.1.15,2013-06-13 12:36:00,
2013-06-13 07:37:00,64.1,58.1,29.87,NNW,341,5.0,7.0,81,0.00,,,0.14,Wunderground v.1.15,2013-06-13 12:37:00,
2013-06-13 07:38:00,64.2,58.2,29.88,NNW,342,5.0,9.0,81,0.00,,,0.14,Wunderground v.1.15,2013-06-13 12:38:00,
2013-06-13 07:42:00,64.6,59.0,29.87,NNE,22,5.0,6.0,82,0.00,,,0.14,Wunderground v.1.15,2013-06-13 12:42:00,
2013-06-13 07:43:00,64.6,58.6,29.87,NW,324,5.0,6.0,81,0.00,,,0.14,Wunderground v.1.15,2013-06-13 12:43:00,
2013-06-13 07:44:00,64.7,58.4,29.87,NNW,346,5.0,6.0,80,0.00,,,0.14,Wunderground v.1.15,2013-06-13 12:44:00,
2013-06-13 07:45:00,64.8,58.5,29.87,North,5,5.0,6.0,80,0.00,,,0.14,Wunderground v.1.15,2013-06-13 12:45:00,
2013-06-13 07:46:00,64.9,58.2,29.87,North,360,5.0,6.0,79,0.00,,,0.14,Wunderground v.1.15,2013-06-13 12:46:00,
2013-06-13 07:48:00,65.0,58.3,29.87,NNW,346,5.0,6.0,79,0.00,,,0.14,Wunderground v.1.15,2013-06-13 12:48:00,
2013-06-13 07:49:00,65.1,58.8,29.87,NNE,22,4.0,6.0,80,0.00,,,0.14,Wunderground v.1.15,2013-06-13 12:49:00,
2013-06-13 07:50:00,65.1,58.4,29.88,North,355,5.0,5.0,79,0.00,,,0.14,Wunderground v.1.15,2013-06-13 12:50:00,
2013-06-13 07:51:00,65.2,58.2,29.88,North,350,5.0,6.0,78,0.00,,,0.14,Wunderground v.1.15,2013-06-13 12:51:00,
2013-06-13 07:56:00,65.5,58.5,29.88,North,350,5.0,7.0,78,0.00,,,0.14,Wunderground v.1.15,2013-06-13 12:56:00,
2013-06-13 07:58:00,65.6,58.6,29.88,North,355,5.0,7.0,78,0.00,,,0.14,Wunderground v.1.15,2013-06-13 12:58:00,
2013-06-13 07:59:00,65.6,58.6,29.88,North,355,5.0,7.0,78,0.00,,,0.14,Wunderground v.1.15,2013-06-13 12:59:00,
2013-06-13 08:00:00,65.6,58.2,29.87,North,355,5.0,7.0,77,0.00,,,0.14,Wunderground v.1.15,2013-06-13 13:00:00,
2013-06-13 08:02:00,65.7,58.3,29.88,North,9,5.0,7.0,77,0.00,,,0.14,Wunderground v.1.15,2013-06-13 13:02:00,
2013-06-13 08:03:00,65.8,58.4,29.87,NNE,26,5.0,7.0,77,0.00,,,0.14,Wunderground v.1.15,2013-06-13 13:03:00,
2013-06-13 08:05:00,65.9,58.8,29.87,North,351,5.0,7.0,78,0.00,,,0.14,Wunderground v.1.15,2013-06-13 13:05:00,
2013-06-13 08:08:00,66.1,58.7,29.87,NNE,13,5.0,7.0,77,0.00,,,0.14,Wunderground v.1.15,2013-06-13 13:08:00,
2013-06-13 08:09:00,66.1,58.7,29.87,NE,38,5.0,9.0,77,0.00,,,0.14,Wunderground v.1.15,2013-06-13 13:09:00,
2013-06-13 08:10:00,66.2,58.4,29.87,NNW,340,5.0,5.0,76,0.00,,,0.14,Wunderground v.1.15,2013-06-13 13:10:00,
2013-06-13 08:12:00,66.3,58.9,29.88,NNW,341,4.0,5.0,77,0.00,,,0.14,Wunderground v.1.15,2013-06-13 13:12:00,
2013-06-13 08:14:00,66.5,58.3,29.88,NW,324,4.0,6.0,75,0.00,,,0.14,Wunderground v.1.15,2013-06-13 13:14:00,
2013-06-13 08:15:00,66.5,58.3,29.88,NNW,340,5.0,9.0,75,0.00,,,0.14,Wunderground v.1.15,2013-06-13 13:15:00,
2013-06-13 08:16:00,66.6,58.4,29.88,NNE,28,5.0,9.0,75,0.00,,,0.14,Wunderground v.1.15,2013-06-13 13:16:00,
2013-06-13 08:18:00,66.7,58.5,29.88,NNE,19,4.0,9.0,75,0.00,,,0.14,Wunderground v.1.15,2013-06-13 13:18:00,
2013-06-13 08:20:00,66.8,58.6,29.88,NE,44,4.0,4.0,75,0.00,,,0.14,Wunderground v.1.15,2013-06-13 13:20:00,
2013-06-13 08:22:00,66.9,58.7,29.89,NNE,17,4.0,7.0,75,0.00,,,0.14,Wunderground v.1.15,2013-06-13 13:22:00,
2013-06-13 08:24:00,67.0,58.4,29.89,NNW,346,5.0,9.0,74,0.00,,,0.14,Wunderground v.1.15,2013-06-13 13:24:00,
2013-06-13 08:28:00,67.3,58.3,29.89,North,355,5.0,9.0,73,0.00,,,0.14,Wunderground v.1.15,2013-06-13 13:28:00,
2013-06-13 08:29:00,67.3,58.3,29.89,North,10,5.0,9.0,73,0.00,,,0.14,Wunderground v.1.15,2013-06-13 13:29:00,
2013-06-13 08:30:00,67.4,58.8,29.89,North,360,5.0,5.0,74,0.00,,,0.14,Wunderground v.1.15,2013-06-13 13:30:00,
2013-06-13 08:34:00,67.6,58.6,29.89,NNE,26,5.0,7.0,73,0.00,,,0.14,Wunderground v.1.15,2013-06-13 13:34:00,
2013-06-13 08:35:00,67.7,59.1,29.89,NNW,345,4.0,7.0,74,0.00,,,0.14,Wunderground v.1.15,2013-06-13 13:35:00,
2013-06-13 08:36:00,67.8,59.2,29.89,North,9,4.0,7.0,74,0.00,,,0.14,Wunderground v.1.15,2013-06-13 13:36:00,
2013-06-13 08:40:00,68.1,59.1,29.89,North,360,4.0,4.0,73,0.00,,,0.14,Wunderground v.1.15,2013-06-13 13:40:00,
2013-06-13 08:41:00,68.2,58.4,29.89,North,5,4.0,9.0,71,0.00,,,0.14,Wunderground v.1.15,2013-06-13 13:41:00,
2013-06-13 08:43:00,68.2,58.4,29.89,North,360,4.0,9.0,71,0.00,,,0.14,Wunderground v.1.15,2013-06-13 13:43:00,
2013-06-13 08:45:00,68.4,58.6,29.89,ENE,63,4.0,9.0,71,0.00,,,0.14,Wunderground v.1.15,2013-06-13 13:45:00,
2013-06-13 08:46:00,68.5,59.1,29.89,NW,325,4.0,9.0,72,0.00,,,0.14,Wunderground v.1.15,2013-06-13 13:46:00,
2013-06-13 08:47:00,68.5,59.1,29.89,NNE,28,4.0,9.0,72,0.00,,,0.14,Wunderground v.1.15,2013-06-13 13:47:00,
2013-06-13 08:48:00,68.6,58.8,29.89,NNW,347,4.0,9.0,71,0.00,,,0.14,Wunderground v.1.15,2013-06-13 13:48:00,
2013-06-13 08:51:00,68.8,59.0,29.89,NE,52,4.0,10.0,71,0.00,,,0.14,Wunderground v.1.15,2013-06-13 13:51:00,
2013-06-13 08:52:00,68.8,59.0,29.89,NE,45,4.0,10.0,71,0.00,,,0.14,Wunderground v.1.15,2013-06-13 13:52:00,
2013-06-13 08:54:00,68.9,58.7,29.89,NE,39,4.0,10.0,70,0.00,,,0.14,Wunderground v.1.15,2013-06-13 13:54:00,
2013-06-13 08:56:00,69.0,58.8,29.89,NE,46,5.0,10.0,70,0.00,,,0.14,Wunderground v.1.15,2013-06-13 13:56:00,
2013-06-13 08:59:00,69.2,58.6,29.90,NNE,27,5.0,10.0,69,0.00,,,0.14,Wunderground v.1.15,2013-06-13 13:59:00,
2013-06-13 09:00:00,69.2,58.2,29.89,NNE,12,5.0,6.0,68,0.00,,,0.14,Wunderground v.1.15,2013-06-13 14:00:00,
2013-06-13 09:04:00,69.4,59.6,29.89,NNE,17,5.0,9.0,71,0.00,,,0.14,Wunderground v.1.15,2013-06-13 14:04:00,
2013-06-13 09:05:00,69.5,59.7,29.89,North,5,5.0,9.0,71,0.00,,,0.14,Wunderground v.1.15,2013-06-13 14:05:00,
2013-06-13 09:07:00,69.7,59.9,29.89,NNW,338,5.0,9.0,71,0.00,,,0.14,Wunderground v.1.15,2013-06-13 14:07:00,
2013-06-13 09:08:00,69.7,59.9,29.89,NW,321,5.0,9.0,71,0.00,,,0.14,Wunderground v.1.15,2013-06-13 14:08:00,
2013-06-13 09:10:00,69.8,59.6,29.90,North,355,4.0,4.0,70,0.00,,,0.14,Wunderground v.1.15,2013-06-13 14:10:00,
2013-06-13 09:13:00,69.9,58.9,29.90,NNE,15,4.0,4.0,68,0.00,,,0.14,Wunderground v.1.15,2013-06-13 14:13:00,
2013-06-13 09:14:00,69.9,58.9,29.90,NNW,338,4.0,6.0,68,0.00,,,0.14,Wunderground v.1.15,2013-06-13 14:14:00,
2013-06-13 09:15:00,70.0,59.0,29.90,North,11,5.0,10.0,68,0.00,,,0.14,Wunderground v.1.15,2013-06-13 14:15:00,
2013-06-13 09:16:00,70.0,59.0,29.90,North,355,5.0,10.0,68,0.00,,,0.14,Wunderground v.1.15,2013-06-13 14:16:00,
2013-06-13 09:17:00,70.0,59.4,29.90,North,360,4.0,10.0,69,0.00,,,0.14,Wunderground v.1.15,2013-06-13 14:17:00,
2013-06-13 09:21:00,70.1,59.0,29.90,North,360,5.0,8.0,68,0.00,,,0.14,Wunderground v.1.15,2013-06-13 14:21:00,
2013-06-13 09:22:00,70.1,59.0,29.90,ENE,57,5.0,8.0,68,0.00,,,0.14,Wunderground v.1.15,2013-06-13 14:22:00,
2013-06-13 09:23:00,70.1,59.9,29.90,ENE,57,5.0,8.0,70,0.00,,,0.14,Wunderground v.1.15,2013-06-13 14:23:00,
2013-06-13 09:24:00,70.2,60.0,29.90,ENE,57,4.0,8.0,70,0.00,,,0.14,Wunderground v.1.15,2013-06-13 14:24:00,
2013-06-13 09:27:00,70.4,60.1,29.90,NNE,22,3.0,8.0,70,0.00,,,0.14,Wunderground v.1.15,2013-06-13 14:27:00,
2013-06-13 09:28:00,70.5,59.8,29.90,NE,37,3.0,8.0,69,0.00,,,0.14,Wunderground v.1.15,2013-06-13 14:28:00,
2013-06-13 09:29:00,70.6,59.9,29.90,NE,36,3.0,8.0,69,0.00,,,0.14,Wunderground v.1.15,2013-06-13 14:29:00,
2013-06-13 09:33:00,70.8,59.7,29.91,NNE,16,3.0,8.0,68,0.00,,,0.14,Wunderground v.1.15,2013-06-13 14:33:00,
2013-06-13 09:35:00,70.8,59.3,29.91,NNE,24,4.0,8.0,67,0.00,,,0.14,Wunderground v.1.15,2013-06-13 14:35:00,
2013-06-13 09:36:00,70.9,59.4,29.91,NE,46,4.0,8.0,67,0.00,,,0.14,Wunderground v.1.15,2013-06-13 14:36:00,
2013-06-13 09:39:00,71.0,59.9,29.91,NNE,25,4.0,8.0,68,0.00,,,0.14,Wunderground v.1.15,2013-06-13 14:39:00,
2013-06-13 09:41:00,71.1,59.2,29.91,NNE,24,4.0,7.0,66,0.00,,,0.14,Wunderground v.1.15,2013-06-13 14:41:00,
2013-06-13 09:42:00,71.1,59.2,29.91,NNE,21,4.0,7.0,66,0.00,,,0.14,Wunderground v.1.15,2013-06-13 14:42:00,
2013-06-13 09:43:00,71.1,59.2,29.91,NE,52,4.0,7.0,66,0.00,,,0.14,Wunderground v.1.15,2013-06-13 14:43:00,
2013-06-13 09:46:00,71.4,60.7,29.91,NNE,21,4.0,7.0,69,0.00,,,0.14,Wunderground v.1.15,2013-06-13 14:46:00,
2013-06-13 09:48:00,71.5,60.0,29.92,North,5,3.0,10.0,67,0.00,,,0.14,Wunderground v.1.15,2013-06-13 14:48:00,
2013-06-13 09:51:00,71.7,59.3,29.92,NNW,342,4.0,6.0,65,0.00,,,0.14,Wunderground v.1.15,2013-06-13 14:51:00,
2013-06-13 09:52:00,71.7,59.3,29.92,NE,37,4.0,6.0,65,0.00,,,0.14,Wunderground v.1.15,2013-06-13 14:52:00,
2013-06-13 09:53:00,71.7,59.3,29.92,NE,45,4.0,6.0,65,0.00,,,0.14,Wunderground v.1.15,2013-06-13 14:53:00,
2013-06-13 09:54:00,71.8,59.8,29.92,NE,45,4.0,6.0,66,0.00,,,0.14,Wunderground v.1.15,2013-06-13 14:54:00,
2013-06-13 09:55:00,71.8,59.4,29.92,North,355,3.0,6.0,65,0.00,,,0.14,Wunderground v.1.15,2013-06-13 14:55:00,
2013-06-13 09:57:00,71.8,58.1,29.92,North,351,4.0,6.0,62,0.00,,,0.14,Wunderground v.1.15,2013-06-13 14:57:00,
2013-06-13 10:00:00,71.9,59.9,29.92,NNE,25,4.0,5.0,66,0.00,,,0.14,Wunderground v.1.15,2013-06-13 15:00:00,
2013-06-13 10:01:00,71.9,59.1,29.92,ENE,64,4.0,5.0,64,0.00,,,0.14,Wunderground v.1.15,2013-06-13 15:01:00,
2013-06-13 10:02:00,71.9,59.1,29.92,ENE,64,4.0,5.0,64,0.00,,,0.14,Wunderground v.1.15,2013-06-13 15:02:00,
2013-06-13 10:03:00,72.0,59.2,29.92,NNE,28,4.0,5.0,64,0.00,,,0.14,Wunderground v.1.15,2013-06-13 15:03:00,
2013-06-13 10:04:00,72.0,59.6,29.92,East,93,4.0,5.0,65,0.00,,,0.14,Wunderground v.1.15,2013-06-13 15:04:00,
2013-06-13 10:07:00,72.3,60.3,29.92,NNW,329,3.0,5.0,66,0.00,,,0.14,Wunderground v.1.15,2013-06-13 15:07:00,
2013-06-13 10:10:00,72.4,60.0,29.92,NNW,338,3.0,3.0,65,0.00,,,0.14,Wunderground v.1.15,2013-06-13 15:10:00,
2013-06-13 10:11:00,72.4,59.5,29.92,NNW,343,4.0,4.0,64,0.00,,,0.14,Wunderground v.1.15,2013-06-13 15:11:00,
2013-06-13 10:15:00,72.4,58.6,29.93,NE,46,4.0,6.0,62,0.00,,,0.14,Wunderground v.1.15,2013-06-13 15:15:00,
2013-06-13 10:17:00,72.5,59.2,29.92,ENE,68,4.0,6.0,63,0.00,,,0.14,Wunderground v.1.15,2013-06-13 15:17:00,
2013-06-13 10:18:00,72.5,59.2,29.93,ENE,65,4.0,6.0,63,0.00,,,0.14,Wunderground v.1.15,2013-06-13 15:18:00,
2013-06-13 10:20:00,72.6,59.7,29.93,NNE,27,3.0,3.0,64,0.00,,,0.14,Wunderground v.1.15,2013-06-13 15:20:00,
2013-06-13 10:23:00,72.8,60.8,29.93,North,5,3.0,4.0,66,0.00,,,0.14,Wunderground v.1.15,2013-06-13 15:23:00,
2013-06-13 10:24:00,72.8,60.3,29.93,North,5,3.0,4.0,65,0.00,,,0.14,Wunderground v.1.15,2013-06-13 15:24:00,
2013-06-13 10:28:00,73.0,61.0,29.93,NNE,19,2.0,9.0,66,0.00,,,0.14,Wunderground v.1.15,2013-06-13 15:28:00,
2013-06-13 10:29:00,73.0,60.1,29.93,North,360,3.0,9.0,64,0.00,,,0.14,Wunderground v.1.15,2013-06-13 15:29:00,
2013-06-13 10:30:00,73.1,60.2,29.93,NNW,340,3.0,3.0,64,0.00,,,0.14,Wunderground v.1.15,2013-06-13 15:30:00,
2013-06-13 10:31:00,73.1,60.2,29.93,NNW,333,3.0,5.0,64,0.00,,,0.14,Wunderground v.1.15,2013-06-13 15:31:00,
2013-06-13 10:33:00,73.1,59.8,29.93,NE,43,4.0,5.0,63,0.00,,,0.14,Wunderground v.1.15,2013-06-13 15:33:00,
2013-06-13 10:35:00,73.2,59.4,29.93,NNE,24,4.0,5.0,62,0.00,,,0.14,Wunderground v.1.15,2013-06-13 15:35:00,
2013-06-13 10:36:00,73.3,60.4,29.93,North,355,4.0,5.0,64,0.00,,,0.14,Wunderground v.1.15,2013-06-13 15:36:00,
2013-06-13 10:37:00,73.3,60.4,29.93,ENE,61,4.0,5.0,64,0.00,,,0.14,Wunderground v.1.15,2013-06-13 15:37:00,
2013-06-13 10:39:00,73.4,60.9,29.93,NE,54,3.0,5.0,65,0.00,,,0.14,Wunderground v.1.15,2013-06-13 15:39:00,
2013-06-13 10:40:00,73.4,59.6,29.93,NE,53,3.0,5.0,62,0.00,,,0.14,Wunderground v.1.15,2013-06-13 15:40:00,
2013-06-13 10:42:00,73.5,60.1,29.93,NE,38,3.0,6.0,63,0.00,,,0.14,Wunderground v.1.15,2013-06-13 15:42:00,
2013-06-13 10:43:00,73.5,59.7,29.93,NE,38,3.0,6.0,62,0.00,,,0.14,Wunderground v.1.15,2013-06-13 15:43:00,
2013-06-13 10:45:00,73.6,58.9,29.93,NE,34,3.0,6.0,60,0.00,,,0.14,Wunderground v.1.15,2013-06-13 15:45:00,
2013-06-13 10:47:00,73.6,59.8,29.94,NW,315,3.0,6.0,62,0.00,,,0.14,Wunderground v.1.15,2013-06-13 15:47:00,
2013-06-13 10:49:00,73.7,60.3,29.93,NW,320,3.0,6.0,63,0.00,,,0.14,Wunderground v.1.15,2013-06-13 15:49:00,
2013-06-13 10:52:00,73.8,60.9,29.93,North,9,3.0,5.0,64,0.00,,,0.14,Wunderground v.1.15,2013-06-13 15:52:00,
2013-06-13 10:55:00,73.9,60.5,29.93,NNW,341,3.0,5.0,63,0.00,,,0.14,Wunderground v.1.15,2013-06-13 15:55:00,
2013-06-13 10:56:00,73.9,61.0,29.93,NNE,21,3.0,6.0,64,0.00,,,0.14,Wunderground v.1.15,2013-06-13 15:56:00,
2013-06-13 10:57:00,73.9,60.1,29.94,NNW,344,3.0,6.0,62,0.00,,,0.14,Wunderground v.1.15,2013-06-13 15:57:00,
2013-06-13 10:58:00,74.0,61.5,29.94,North,10,3.0,6.0,65,0.00,,,0.14,Wunderground v.1.15,2013-06-13 15:58:00,
2013-06-13 10:59:00,74.0,60.6,29.94,North,11,3.0,6.0,63,0.00,,,0.14,Wunderground v.1.15,2013-06-13 15:59:00,
2013-06-13 11:01:00,74.1,60.7,29.94,NNE,28,3.0,3.0,63,0.00,,,0.14,Wunderground v.1.15,2013-06-13 16:01:00,
2013-06-13 11:03:00,74.2,60.8,29.94,NNE,30,3.0,4.0,63,0.00,,,0.14,Wunderground v.1.15,2013-06-13 16:03:00,
2013-06-13 11:04:00,74.2,59.9,29.94,North,355,3.0,4.0,61,0.00,,,0.14,Wunderground v.1.15,2013-06-13 16:04:00,
2013-06-13 11:06:00,74.2,59.9,29.94,North,360,3.0,4.0,61,0.00,,,0.14,Wunderground v.1.15,2013-06-13 16:06:00,
2013-06-13 11:09:00,74.3,62.6,29.94,North,11,2.0,6.0,67,0.00,,,0.14,Wunderground v.1.15,2013-06-13 16:09:00,
2013-06-13 11:10:00,74.4,61.0,29.94,NNW,338,3.0,4.0,63,0.00,,,0.14,Wunderground v.1.15,2013-06-13 16:10:00,
2013-06-13 11:12:00,74.4,61.0,29.94,NNW,336,3.0,4.0,63,0.00,,,0.14,Wunderground v.1.15,2013-06-13 16:12:00,
2013-06-13 11:14:00,74.4,62.3,29.94,NNW,344,2.0,4.0,66,0.00,,,0.14,Wunderground v.1.15,2013-06-13 16:14:00,
2013-06-13 11:15:00,74.4,62.3,29.95,NNE,30,3.0,4.0,66,0.00,,,0.14,Wunderground v.1.15,2013-06-13 16:15:00,
2013-06-13 11:19:00,74.6,60.7,29.94,NNW,336,3.0,5.0,62,0.00,,,0.14,Wunderground v.1.15,2013-06-13 16:19:00,
2013-06-13 11:20:00,74.6,60.7,29.94,NNW,337,3.0,3.0,62,0.00,,,0.14,Wunderground v.1.15,2013-06-13 16:20:00,
2013-06-13 11:22:00,74.6,60.7,29.94,NNW,348,3.0,4.0,62,0.00,,,0.14,Wunderground v.1.15,2013-06-13 16:22:00,
2013-06-13 11:23:00,74.6,61.6,29.95,NNW,342,4.0,4.0,64,0.00,,,0.14,Wunderground v.1.15,2013-06-13 16:23:00,
2013-06-13 11:25:00,74.6,60.7,29.95,NW,323,3.0,7.0,62,0.00,,,0.14,Wunderground v.1.15,2013-06-13 16:25:00,
2013-06-13 11:26:00,74.6,60.3,29.95,NNW,339,4.0,7.0,61,0.00,,,0.14,Wunderground v.1.15,2013-06-13 16:26:00,
2013-06-13 11:27:00,74.6,60.3,29.94,NNW,340,4.0,7.0,61,0.00,,,0.14,Wunderground v.1.15,2013-06-13 16:27:00,
2013-06-13 11:28:00,74.6,60.7,29.94,NNW,339,4.0,7.0,62,0.00,,,0.14,Wunderground v.1.15,2013-06-13 16:28:00,
2013-06-13 11:31:00,74.7,60.8,29.94,WNW,296,4.0,5.0,62,0.00,,,0.14,Wunderground v.1.15,2013-06-13 16:31:00,
2013-06-13 11:32:00,74.7,60.8,29.95,NNW,344,4.0,5.0,62,0.00,,,0.14,Wunderground v.1.15,2013-06-13 16:32:00,
2013-06-13 11:35:00,74.7,60.4,29.94,NNE,22,4.0,5.0,61,0.00,,,0.14,Wunderground v.1.15,2013-06-13 16:35:00,
2013-06-13 11:39:00,74.7,61.7,29.94,NNW,336,3.0,7.0,64,0.00,,,0.14,Wunderground v.1.15,2013-06-13 16:39:00,
2013-06-13 11:40:00,74.8,60.4,29.94,North,350,3.0,3.0,61,0.00,,,0.14,Wunderground v.1.15,2013-06-13 16:40:00,
2013-06-13 11:41:00,74.8,61.8,29.94,NNW,339,3.0,3.0,64,0.00,,,0.14,Wunderground v.1.15,2013-06-13 16:41:00,
2013-06-13 11:42:00,74.9,61.0,29.94,NNW,340,3.0,3.0,62,0.00,,,0.14,Wunderground v.1.15,2013-06-13 16:42:00,
2013-06-13 11:45:00,75.0,62.0,29.94,NNW,337,3.0,7.0,64,0.00,,,0.14,Wunderground v.1.15,2013-06-13 16:45:00,
2013-06-13 11:47:00,75.1,60.7,29.94,North,355,3.0,7.0,61,0.00,,,0.14,Wunderground v.1.15,2013-06-13 16:47:00,
2013-06-13 11:48:00,75.1,60.7,29.94,NNE,26,4.0,7.0,61,0.00,,,0.14,Wunderground v.1.15,2013-06-13 16:48:00,
2013-06-13 11:50:00,75.1,60.7,29.94,NE,51,4.0,4.0,61,0.00,,,0.14,Wunderground v.1.15,2013-06-13 16:50:00,
2013-06-13 11:52:00,75.2,61.3,29.94,NNW,337,4.0,4.0,62,0.00,,,0.14,Wunderground v.1.15,2013-06-13 16:52:00,
2013-06-13 11:53:00,75.3,61.4,29.95,North,9,4.0,4.0,62,0.00,,,0.14,Wunderground v.1.15,2013-06-13 16:53:00,
2013-06-13 11:54:00,75.3,60.9,29.94,NNW,336,4.0,4.0,61,0.00,,,0.14,Wunderground v.1.15,2013-06-13 16:54:00,
2013-06-13 11:57:00,75.4,60.1,29.94,North,355,4.0,5.0,59,0.00,,,0.14,Wunderground v.1.15,2013-06-13 16:57:00,
2013-06-13 11:59:00,75.4,60.5,29.94,NNE,16,4.0,9.0,60,0.00,,,0.14,Wunderground v.1.15,2013-06-13 16:59:00,
2013-06-13 12:00:00,75.4,59.6,29.94,NNW,348,4.0,5.0,58,0.00,,,0.14,Wunderground v.1.15,2013-06-13 17:00:00,
2013-06-13 12:01:00,75.3,60.0,29.94,NNW,333,5.0,5.0,59,0.00,,,0.14,Wunderground v.1.15,2013-06-13 17:01:00,
2013-06-13 12:04:00,75.3,61.8,29.95,North,355,5.0,5.0,63,0.00,,,0.14,Wunderground v.1.15,2013-06-13 17:04:00,
2013-06-13 12:05:00,75.3,61.8,29.94,NW,320,5.0,6.0,63,0.00,,,0.14,Wunderground v.1.15,2013-06-13 17:05:00,
2013-06-13 12:06:00,75.3,60.5,29.94,NNE,13,5.0,6.0,60,0.00,,,0.14,Wunderground v.1.15,2013-06-13 17:06:00,
2013-06-13 12:07:00,75.3,60.9,29.95,NNW,348,5.0,6.0,61,0.00,,,0.14,Wunderground v.1.15,2013-06-13 17:07:00,
2013-06-13 12:09:00,75.4,62.4,29.95,NNW,340,5.0,9.0,64,0.00,,,0.14,Wunderground v.1.15,2013-06-13 17:09:00,
2013-06-13 12:10:00,75.4,62.4,29.95,NNW,332,5.0,5.0,64,0.00,,,0.14,Wunderground v.1.15,2013-06-13 17:10:00,
2013-06-13 12:16:00,75.7,61.3,29.95,NE,54,4.0,6.0,61,0.00,,,0.14,Wunderground v.1.15,2013-06-13 17:16:00,
2013-06-13 12:17:00,75.7,61.3,29.95,NE,55,4.0,6.0,61,0.00,,,0.14,Wunderground v.1.15,2013-06-13 17:17:00,
2013-06-13 12:18:00,75.8,61.8,29.95,NE,46,4.0,6.0,62,0.00,,,0.14,Wunderground v.1.15,2013-06-13 17:18:00,
2013-06-13 12:20:00,75.8,60.4,29.95,NE,34,4.0,7.0,59,0.00,,,0.14,Wunderground v.1.15,2013-06-13 17:20:00,
2013-06-13 12:23:00,75.9,61.5,29.95,NE,39,4.0,7.0,61,0.00,,,0.14,Wunderground v.1.15,2013-06-13 17:23:00,
2013-06-13 12:26:00,76.1,63.0,29.95,NNE,18,4.0,7.0,64,0.00,,,0.14,Wunderground v.1.15,2013-06-13 17:26:00,
2013-06-13 12:27:00,76.1,61.2,29.95,NNW,333,4.0,7.0,60,0.00,,,0.14,Wunderground v.1.15,2013-06-13 17:27:00,
2013-06-13 12:31:00,76.2,61.8,29.95,North,360,4.0,6.0,61,0.00,,,0.14,Wunderground v.1.15,2013-06-13 17:31:00,
2013-06-13 12:32:00,76.2,60.3,29.95,North,355,4.0,6.0,58,0.00,,,0.14,Wunderground v.1.15,2013-06-13 17:32:00,
2013-06-13 12:33:00,76.3,60.4,29.95,NNW,336,4.0,6.0,58,0.00,,,0.14,Wunderground v.1.15,2013-06-13 17:33:00,
2013-06-13 12:38:00,76.2,61.3,29.95,NNE,13,4.0,6.0,60,0.00,,,0.14,Wunderground v.1.15,2013-06-13 17:38:00,
2013-06-13 12:39:00,76.2,60.8,29.95,NNW,348,4.0,6.0,59,0.00,,,0.14,Wunderground v.1.15,2013-06-13 17:39:00,
2013-06-13 12:41:00,76.1,61.2,29.95,NNW,330,3.0,7.0,60,0.00,,,0.14,Wunderground v.1.15,2013-06-13 17:41:00,
2013-06-13 12:42:00,76.1,62.1,29.95,NNW,331,3.0,7.0,62,0.00,,,0.14,Wunderground v.1.15,2013-06-13 17:42:00,
2013-06-13 12:44:00,76.1,60.7,29.95,NNE,13,3.0,7.0,59,0.00,,,0.14,Wunderground v.1.15,2013-06-13 17:44:00,
2013-06-13 12:45:00,76.2,61.8,29.95,North,10,3.0,7.0,61,0.00,,,0.14,Wunderground v.1.15,2013-06-13 17:45:00,
2013-06-13 12:47:00,76.2,60.8,29.95,NW,325,4.0,9.0,59,0.00,,,0.14,Wunderground v.1.15,2013-06-13 17:47:00,
2013-06-13 12:48:00,76.3,61.4,29.95,NW,322,4.0,9.0,60,0.00,,,0.14,Wunderground v.1.15,2013-06-13 17:48:00,
2013-06-13 12:49:00,76.3,61.4,29.95,NW,304,4.0,9.0,60,0.00,,,0.14,Wunderground v.1.15,2013-06-13 17:49:00,
2013-06-13 12:52:00,76.3,61.4,29.95,NNW,327,5.0,12.0,60,0.00,,,0.14,Wunderground v.1.15,2013-06-13 17:52:00,
2013-06-13 12:53:00,76.3,60.9,29.95,NNW,337,5.0,12.0,59,0.00,,,0.14,Wunderground v.1.15,2013-06-13 17:53:00,
2013-06-13 12:58:00,76.2,60.3,29.95,NNW,333,5.0,12.0,58,0.00,,,0.14,Wunderground v.1.15,2013-06-13 17:58:00,
2013-06-13 12:59:00,76.2,60.8,29.95,NNW,338,5.0,12.0,59,0.00,,,0.14,Wunderground v.1.15,2013-06-13 17:59:00,
2013-06-13 13:01:00,75.9,60.5,29.95,WNW,295,5.0,5.0,59,0.00,,,0.14,Wunderground v.1.15,2013-06-13 18:01:00,
2013-06-13 13:03:00,75.8,59.5,29.95,WNW,298,5.0,5.0,57,0.00,,,0.14,Wunderground v.1.15,2013-06-13 18:03:00,
2013-06-13 13:04:00,75.7,59.9,29.95,WNW,298,4.0,5.0,58,0.00,,,0.14,Wunderground v.1.15,2013-06-13 18:04:00,
2013-06-13 13:06:00,75.7,61.8,29.95,West,279,4.0,5.0,62,0.00,,,0.14,Wunderground v.1.15,2013-06-13 18:06:00,
2013-06-13 13:08:00,75.8,61.8,29.95,West,279,3.0,5.0,62,0.00,,,0.14,Wunderground v.1.15,2013-06-13 18:08:00,
2013-06-13 13:10:00,75.9,61.0,29.95,WNW,285,3.0,3.0,60,0.00,,,0.14,Wunderground v.1.15,2013-06-13 18:10:00,
2013-06-13 13:11:00,76.0,60.6,29.95,West,279,2.0,3.0,59,0.00,,,0.14,Wunderground v.1.15,2013-06-13 18:11:00,
2013-06-13 13:12:00,76.0,60.6,29.95,NNW,332,2.0,7.0,59,0.00,,,0.14,Wunderground v.1.15,2013-06-13 18:12:00,
2013-06-13 13:15:00,76.0,59.7,29.95,NW,310,2.0,7.0,57,0.00,,,0.14,Wunderground v.1.15,2013-06-13 18:15:00,
2013-06-13 13:16:00,75.9,60.1,29.95,NNW,342,2.0,7.0,58,0.00,,,0.14,Wunderground v.1.15,2013-06-13 18:16:00,
2013-06-13 13:17:00,75.9,60.1,29.95,NNW,342,2.0,7.0,58,0.00,,,0.14,Wunderground v.1.15,2013-06-13 18:17:00,
2013-06-13 13:20:00,75.9,61.9,29.95,NW,323,3.0,4.0,62,0.00,,,0.14,Wunderground v.1.15,2013-06-13 18:20:00,
2013-06-13 13:21:00,75.9,61.5,29.95,NNW,331,3.0,4.0,61,0.00,,,0.14,Wunderground v.1.15,2013-06-13 18:21:00,
2013-06-13 13:26:00,76.1,61.2,29.95,North,11,4.0,9.0,60,0.00,,,0.14,Wunderground v.1.15,2013-06-13 18:26:00,
2013-06-13 13:27:00,76.2,61.3,29.95,North,11,4.0,9.0,60,0.00,,,0.14,Wunderground v.1.15,2013-06-13 18:27:00,
2013-06-13 13:28:00,76.2,61.3,29.95,North,355,4.0,9.0,60,0.00,,,0.14,Wunderground v.1.15,2013-06-13 18:28:00,
2013-06-13 13:29:00,76.4,62.4,29.95,NNE,14,5.0,9.0,62,0.00,,,0.14,Wunderground v.1.15,2013-06-13 18:29:00,
2013-06-13 13:31:00,76.6,61.2,29.95,NNE,17,5.0,5.0,59,0.00,,,0.14,Wunderground v.1.15,2013-06-13 18:31:00,
2013-06-13 13:32:00,76.6,61.2,29.95,North,10,5.0,5.0,59,0.00,,,0.14,Wunderground v.1.15,2013-06-13 18:32:00,
2013-06-13 13:36:00,76.9,61.5,29.95,NNW,337,5.0,6.0,59,0.00,,,0.14,Wunderground v.1.15,2013-06-13 18:36:00,
2013-06-13 13:37:00,76.9,62.4,29.95,NNW,337,4.0,6.0,61,0.00,,,0.14,Wunderground v.1.15,2013-06-13 18:37:00,
2013-06-13 13:38:00,76.9,62.0,29.95,NNE,27,4.0,6.0,60,0.00,,,0.14,Wunderground v.1.15,2013-06-13 18:38:00,
2013-06-13 13:39:00,77.0,59.6,29.95,NE,34,5.0,6.0,55,0.00,,,0.14,Wunderground v.1.15,2013-06-13 18:39:00,
2013-06-13 13:43:00,77.1,60.2,29.95,North,355,5.0,9.0,56,0.00,,,0.14,Wunderground v.1.15,2013-06-13 18:43:00,
2013-06-13 13:44:00,77.1,60.7,29.95,North,5,5.0,9.0,57,0.00,,,0.14,Wunderground v.1.15,2013-06-13 18:44:00,
2013-06-13 13:45:00,77.1,61.7,29.95,North,355,4.0,9.0,59,0.00,,,0.14,Wunderground v.1.15,2013-06-13 18:45:00,
2013-06-13 13:47:00,77.2,61.8,29.95,NE,36,5.0,9.0,59,0.00,,,0.14,Wunderground v.1.15,2013-06-13 18:47:00,
2013-06-13 13:49:00,77.3,61.4,29.95,NE,53,5.0,9.0,58,0.00,,,0.14,Wunderground v.1.15,2013-06-13 18:49:00,
2013-06-13 13:50:00,77.4,61.0,29.95,NNE,27,5.0,8.0,57,0.00,,,0.14,Wunderground v.1.15,2013-06-13 18:50:00,
2013-06-13 13:53:00,77.4,62.4,29.95,NE,56,5.0,8.0,60,0.00,,,0.14,Wunderground v.1.15,2013-06-13 18:53:00,
2013-06-13 13:56:00,77.3,62.3,29.95,NNW,329,5.0,8.0,60,0.00,,,0.14,Wunderground v.1.15,2013-06-13 18:56:00,
2013-06-13 13:58:00,77.3,60.9,29.95,North,355,5.0,8.0,57,0.00,,,0.14,Wunderground v.1.15,2013-06-13 18:58:00,
2013-06-13 14:00:00,77.2,60.8,29.95,North,5,5.0,5.0,57,0.00,,,0.14,Wunderground v.1.15,2013-06-13 19:00:00,
2013-06-13 14:03:00,77.1,60.7,29.95,North,350,4.0,5.0,57,0.00,,,0.14,Wunderground v.1.15,2013-06-13 19:03:00,
2013-06-13 14:05:00,76.9,59.5,29.95,North,355,4.0,6.0,55,0.00,,,0.14,Wunderground v.1.15,2013-06-13 19:05:00,
2013-06-13 14:06:00,76.8,59.9,29.95,NNW,346,4.0,6.0,56,0.00,,,0.14,Wunderground v.1.15,2013-06-13 19:06:00,
2013-06-13 14:07:00,76.7,60.3,29.95,NNW,343,4.0,6.0,57,0.00,,,0.14,Wunderground v.1.15,2013-06-13 19:07:00,
2013-06-13 14:09:00,76.6,60.2,29.95,NNW,342,4.0,7.0,57,0.00,,,0.14,Wunderground v.1.15,2013-06-13 19:09:00,
2013-06-13 14:14:00,76.7,61.3,29.95,NNW,329,4.0,11.0,59,0.00,,,0.14,Wunderground v.1.15,2013-06-13 19:14:00,
2013-06-13 14:15:00,76.8,61.4,29.95,North,349,4.0,11.0,59,0.00,,,0.14,Wunderground v.1.15,2013-06-13 19:15:00,
2013-06-13 14:17:00,77.0,60.1,29.96,NNE,18,5.0,11.0,56,0.00,,,0.14,Wunderground v.1.15,2013-06-13 19:17:00,
2013-06-13 14:18:00,77.1,60.2,29.95,NNE,14,5.0,11.0,56,0.00,,,0.14,Wunderground v.1.15,2013-06-13 19:18:00,
2013-06-13 14:21:00,77.3,61.9,29.95,NNW,331,6.0,8.0,59,0.00,,,0.14,Wunderground v.1.15,2013-06-13 19:21:00,
2013-06-13 14:24:00,77.5,60.6,29.95,North,350,5.0,8.0,56,0.00,,,0.14,Wunderground v.1.15,2013-06-13 19:24:00,
2013-06-13 14:26:00,77.8,62.3,29.95,NW,320,4.0,8.0,59,0.00,,,0.14,Wunderground v.1.15,2013-06-13 19:26:00,
2013-06-13 14:27:00,77.8,62.8,29.95,NNW,340,4.0,8.0,60,0.00,,,0.14,Wunderground v.1.15,2013-06-13 19:27:00,
2013-06-13 14:28:00,77.9,61.4,29.95,North,5,4.0,8.0,57,0.00,,,0.14,Wunderground v.1.15,2013-06-13 19:28:00,
2013-06-13 14:30:00,78.0,62.0,29.95,NNW,331,4.0,6.0,58,0.00,,,0.14,Wunderground v.1.15,2013-06-13 19:30:00,
2013-06-13 14:32:00,78.0,60.5,29.95,North,350,4.0,6.0,55,0.00,,,0.14,Wunderground v.1.15,2013-06-13 19:32:00,
2013-06-13 14:33:00,78.0,60.0,29.95,NNW,346,4.0,6.0,54,0.00,,,0.14,Wunderground v.1.15,2013-06-13 19:33:00,
2013-06-13 14:34:00,78.0,60.5,29.95,NW,322,3.0,6.0,55,0.00,,,0.14,Wunderground v.1.15,2013-06-13 19:34:00,
2013-06-13 14:37:00,78.0,60.5,29.95,NNW,331,4.0,6.0,55,0.00,,,0.14,Wunderground v.1.15,2013-06-13 19:37:00,
2013-06-13 14:39:00,77.9,59.4,29.95,NNW,327,4.0,6.0,53,0.00,,,0.14,Wunderground v.1.15,2013-06-13 19:39:00,
2013-06-13 14:40:00,77.8,59.3,29.95,North,355,3.0,4.0,53,0.00,,,0.14,Wunderground v.1.15,2013-06-13 19:40:00,
2013-06-13 14:41:00,77.8,60.8,29.95,NNW,331,3.0,4.0,56,0.00,,,0.14,Wunderground v.1.15,2013-06-13 19:41:00,
2013-06-13 14:42:00,77.7,60.8,29.95,NNW,327,3.0,4.0,56,0.00,,,0.14,Wunderground v.1.15,2013-06-13 19:42:00,
2013-06-13 14:43:00,77.7,60.8,29.95,NNW,327,3.0,4.0,56,0.00,,,0.14,Wunderground v.1.15,2013-06-13 19:43:00,
2013-06-13 14:45:00,77.5,60.6,29.95,NNW,342,3.0,5.0,56,0.00,,,0.14,Wunderground v.1.15,2013-06-13 19:45:00,
2013-06-13 14:47:00,77.4,60.0,29.95,NNE,27,4.0,10.0,55,0.00,,,0.14,Wunderground v.1.15,2013-06-13 19:47:00,
2013-06-13 14:51:00,77.4,61.5,29.95,North,355,4.0,6.0,58,0.00,,,0.14,Wunderground v.1.15,2013-06-13 19:51:00,
2013-06-13 14:52:00,77.5,61.6,29.95,NNW,333,4.0,6.0,58,0.00,,,0.14,Wunderground v.1.15,2013-06-13 19:52:00,
2013-06-13 14:56:00,77.7,58.7,29.95,North,10,5.0,6.0,52,0.00,,,0.14,Wunderground v.1.15,2013-06-13 19:56:00,
2013-06-13 14:57:00,77.7,58.7,29.95,North,9,4.0,6.0,52,0.00,,,0.14,Wunderground v.1.15,2013-06-13 19:57:00,
2013-06-13 14:58:00,77.8,59.8,29.95,North,10,4.0,6.0,54,0.00,,,0.14,Wunderground v.1.15,2013-06-13 19:58:00,
2013-06-13 15:01:00,78.0,59.5,29.95,NNW,345,4.0,4.0,53,0.00,,,0.14,Wunderground v.1.15,2013-06-13 20:01:00,
2013-06-13 15:03:00,78.0,58.9,29.95,NNW,342,3.0,7.0,52,0.00,,,0.14,Wunderground v.1.15,2013-06-13 20:03:00,
2013-06-13 15:04:00,78.1,60.1,29.95,NNW,329,3.0,7.0,54,0.00,,,0.14,Wunderground v.1.15,2013-06-13 20:04:00,
2013-06-13 15:05:00,78.2,59.7,29.95,NNE,18,3.0,7.0,53,0.00,,,0.14,Wunderground v.1.15,2013-06-13 20:05:00,
2013-06-13 15:06:00,78.3,58.7,29.95,NNW,332,3.0,7.0,51,0.00,,,0.14,Wunderground v.1.15,2013-06-13 20:06:00,
2013-06-13 15:09:00,78.5,58.9,29.95,NNW,344,4.0,7.0,51,0.00,,,0.14,Wunderground v.1.15,2013-06-13 20:09:00,
2013-06-13 15:12:00,78.8,61.3,29.95,North,9,3.0,4.0,55,0.00,,,0.14,Wunderground v.1.15,2013-06-13 20:12:00,
2013-06-13 15:14:00,79.0,60.9,29.95,NE,34,3.0,5.0,54,0.00,,,0.14,Wunderground v.1.15,2013-06-13 20:14:00,
2013-06-13 15:15:00,79.1,60.0,29.95,NNE,23,3.0,5.0,52,0.00,,,0.14,Wunderground v.1.15,2013-06-13 20:15:00,
2013-06-13 15:17:00,79.1,60.0,29.95,North,5,4.0,9.0,52,0.00,,,0.14,Wunderground v.1.15,2013-06-13 20:17:00,
2013-06-13 15:19:00,79.1,61.0,29.95,NE,53,3.0,9.0,54,0.00,,,0.14,Wunderground v.1.15,2013-06-13 20:19:00,
2013-06-13 15:20:00,79.0,59.3,29.95,NE,51,3.0,3.0,51,0.00,,,0.14,Wunderground v.1.15,2013-06-13 20:20:00,
2013-06-13 15:21:00,78.9,59.2,29.95,NE,51,3.0,3.0,51,0.00,,,0.14,Wunderground v.1.15,2013-06-13 20:21:00,
2013-06-13 15:22:00,78.8,59.7,29.95,NE,51,3.0,3.0,52,0.00,,,0.14,Wunderground v.1.15,2013-06-13 20:22:00,
2013-06-13 15:25:00,78.6,59.0,29.95,North,360,3.0,4.0,51,0.00,,,0.14,Wunderground v.1.15,2013-06-13 20:25:00,
2013-06-13 15:27:00,78.4,59.3,29.95,NNE,22,3.0,4.0,52,0.00,,,0.14,Wunderground v.1.15,2013-06-13 20:27:00,
2013-06-13 15:29:00,78.4,58.8,29.95,NE,43,3.0,7.0,51,0.00,,,0.14,Wunderground v.1.15,2013-06-13 20:29:00,
2013-06-13 15:31:00,78.4,58.2,29.95,NNE,31,3.0,3.0,50,0.00,,,0.14,Wunderground v.1.15,2013-06-13 20:31:00,
2013-06-13 15:34:00,78.5,58.3,29.95,NNW,342,4.0,6.0,50,0.00,,,0.14,Wunderground v.1.15,2013-06-13 20:34:00,
2013-06-13 15:36:00,78.5,59.9,29.95,NE,40,4.0,7.0,53,0.00,,,0.14,Wunderground v.1.15,2013-06-13 20:36:00,
2013-06-13 15:37:00,78.6,59.5,29.95,North,11,4.0,7.0,52,0.00,,,0.14,Wunderground v.1.15,2013-06-13 20:37:00,
2013-06-13 15:38:00,78.6,59.0,29.95,NW,309,4.0,7.0,51,0.00,,,0.14,Wunderground v.1.15,2013-06-13 20:38:00,
2013-06-13 15:39:00,78.7,59.6,29.95,WNW,290,4.0,7.0,52,0.00,,,0.14,Wunderground v.1.15,2013-06-13 20:39:00,
2013-06-13 15:40:00,78.8,60.7,29.95,WNW,290,4.0,4.0,54,0.00,,,0.14,Wunderground v.1.15,2013-06-13 20:40:00,
2013-06-13 15:42:00,79.0,59.9,29.95,NW,316,3.0,4.0,52,0.00,,,0.14,Wunderground v.1.15,2013-06-13 20:42:00,
2013-06-13 15:44:00,79.2,62.1,29.95,North,350,3.0,4.0,56,0.00,,,0.14,Wunderground v.1.15,2013-06-13 20:44:00,
2013-06-13 15:45:00,79.3,59.0,29.95,NNE,28,3.0,4.0,50,0.00,,,0.14,Wunderground v.1.15,2013-06-13 20:45:00,
2013-06-13 15:46:00,79.4,59.7,29.95,NNE,28,3.0,4.0,51,0.00,,,0.14,Wunderground v.1.15,2013-06-13 20:46:00,
2013-06-13 15:47:00,79.4,59.7,29.95,NNW,340,3.0,4.0,51,0.00,,,0.14,Wunderground v.1.15,2013-06-13 20:47:00,
2013-06-13 15:49:00,79.6,61.0,29.95,NNW,337,2.0,6.0,53,0.00,,,0.14,Wunderground v.1.15,2013-06-13 20:49:00,
2013-06-13 15:52:00,79.5,58.7,29.95,North,355,3.0,4.0,49,0.00,,,0.14,Wunderground v.1.15,2013-06-13 20:52:00,
2013-06-13 15:55:00,79.4,60.2,29.95,NNE,24,3.0,4.0,52,0.00,,,0.14,Wunderground v.1.15,2013-06-13 20:55:00,
2013-06-13 15:58:00,79.2,59.0,29.94,NNW,347,3.0,5.0,50,0.00,,,0.14,Wunderground v.1.15,2013-06-13 20:58:00,
2013-06-13 16:00:00,79.0,59.3,29.95,North,5,3.0,3.0,51,0.00,,,0.14,Wunderground v.1.15,2013-06-13 21:00:00,
2013-06-13 16:04:00,78.5,59.4,29.95,NNE,15,3.0,4.0,52,0.00,,,0.14,Wunderground v.1.15,2013-06-13 21:04:00,
2013-06-13 16:05:00,78.5,59.4,29.95,NNE,12,3.0,4.0,52,0.00,,,0.14,Wunderground v.1.15,2013-06-13 21:05:00,
2013-06-13 16:07:00,78.3,59.2,29.95,North,10,3.0,4.0,52,0.00,,,0.14,Wunderground v.1.15,2013-06-13 21:07:00,
2013-06-13 16:10:00,78.2,59.7,29.95,WNW,300,3.0,3.0,53,0.00,,,0.14,Wunderground v.1.15,2013-06-13 21:10:00,
2013-06-13 16:12:00,78.2,58.6,29.95,NNE,24,2.0,4.0,51,0.00,,,0.14,Wunderground v.1.15,2013-06-13 21:12:00,
2013-06-13 16:14:00,78.1,59.0,29.94,NNE,26,2.0,4.0,52,0.00,,,0.14,Wunderground v.1.15,2013-06-13 21:14:00,
2013-06-13 16:15:00,78.0,59.5,29.94,NNE,23,2.0,4.0,53,0.00,,,0.14,Wunderground v.1.15,2013-06-13 21:15:00,
2013-06-13 16:17:00,78.1,60.6,29.94,NNE,23,2.0,4.0,55,0.00,,,0.14,Wunderground v.1.15,2013-06-13 21:17:00,
2013-06-13 16:20:00,78.3,59.8,29.94,NNE,22,1.0,1.0,53,0.00,,,0.14,Wunderground v.1.15,2013-06-13 21:20:00,
2013-06-13 16:23:00,78.5,59.9,29.94,NNE,17,1.0,1.0,53,0.00,,,0.14,Wunderground v.1.15,2013-06-13 21:23:00,
2013-06-13 16:25:00,78.7,60.7,29.94,North,11,1.0,4.0,54,0.00,,,0.14,Wunderground v.1.15,2013-06-13 21:25:00,
2013-06-13 16:27:00,78.9,59.8,29.94,NE,52,1.0,4.0,52,0.00,,,0.14,Wunderground v.1.15,2013-06-13 21:27:00,
2013-06-13 16:28:00,78.9,59.2,29.94,NE,51,1.0,4.0,51,0.00,,,0.14,Wunderground v.1.15,2013-06-13 21:28:00,
2013-06-13 16:30:00,79.0,59.9,29.94,NE,38,2.0,2.0,52,0.00,,,0.14,Wunderground v.1.15,2013-06-13 21:30:00,
2013-06-13 16:34:00,79.2,60.6,29.94,NE,36,2.0,5.0,53,0.00,,,0.14,Wunderground v.1.15,2013-06-13 21:34:00,
2013-06-13 16:35:00,79.2,59.5,29.94,NNE,18,3.0,5.0,51,0.00,,,0.14,Wunderground v.1.15,2013-06-13 21:35:00,
2013-06-13 16:36:00,79.3,60.1,29.94,NE,40,3.0,5.0,52,0.00,,,0.14,Wunderground v.1.15,2013-06-13 21:36:00,
2013-06-13 16:37:00,79.3,59.0,29.94,NE,39,3.0,5.0,50,0.00,,,0.14,Wunderground v.1.15,2013-06-13 21:37:00,
2013-06-13 16:39:00,79.2,59.0,29.94,NNE,32,3.0,5.0,50,0.00,,,0.14,Wunderground v.1.15,2013-06-13 21:39:00,
2013-06-13 16:42:00,79.3,60.1,29.95,NNE,22,3.0,7.0,52,0.00,,,0.14,Wunderground v.1.15,2013-06-13 21:42:00,
2013-06-13 16:43:00,79.3,60.1,29.95,NNE,22,3.0,7.0,52,0.00,,,0.14,Wunderground v.1.15,2013-06-13 21:43:00,
2013-06-13 16:48:00,79.4,60.2,29.94,NNE,21,3.0,7.0,52,0.00,,,0.14,Wunderground v.1.15,2013-06-13 21:48:00,
2013-06-13 16:51:00,79.4,59.7,29.94,North,5,3.0,3.0,51,0.00,,,0.14,Wunderground v.1.15,2013-06-13 21:51:00,
2013-06-13 16:53:00,79.4,60.2,29.94,North,5,2.0,3.0,52,0.00,,,0.14,Wunderground v.1.15,2013-06-13 21:53:00,
2013-06-13 16:56:00,79.2,59.0,29.94,North,11,2.0,3.0,50,0.00,,,0.14,Wunderground v.1.15,2013-06-13 21:56:00,
2013-06-13 16:57:00,79.1,58.9,29.94,NNE,18,2.0,5.0,50,0.00,,,0.14,Wunderground v.1.15,2013-06-13 21:57:00,
2013-06-13 16:58:00,79.1,58.9,29.94,NNE,31,2.0,5.0,50,0.00,,,0.14,Wunderground v.1.15,2013-06-13 21:58:00,
2013-06-13 17:00:00,78.9,59.2,29.94,North,351,2.0,4.0,51,0.00,,,0.14,Wunderground v.1.15,2013-06-13 22:00:00,
2013-06-13 17:04:00,78.5,59.9,29.94,North,355,2.0,4.0,53,0.00,,,0.14,Wunderground v.1.15,2013-06-13 22:04:00,
2013-06-13 17:08:00,78.5,60.5,29.94,NNE,24,2.0,5.0,54,0.00,,,0.14,Wunderground v.1.15,2013-06-13 22:08:00,
2013-06-13 17:10:00,78.5,58.9,29.94,NNE,30,1.0,1.0,51,0.00,,,0.14,Wunderground v.1.15,2013-06-13 22:10:00,
2013-06-13 17:12:00,78.5,58.9,29.94,NNE,26,1.0,1.0,51,0.00,,,0.14,Wunderground v.1.15,2013-06-13 22:12:00,
2013-06-13 17:14:00,78.5,59.9,29.94,NNE,26,1.0,1.0,53,0.00,,,0.14,Wunderground v.1.15,2013-06-13 22:14:00,
2013-06-13 17:15:00,78.5,60.5,29.94,NNE,23,1.0,2.0,54,0.00,,,0.14,Wunderground v.1.15,2013-06-13 22:15:00,
2013-06-13 17:18:00,78.3,59.2,29.94,NNE,24,1.0,2.0,52,0.00,,,0.14,Wunderground v.1.15,2013-06-13 22:18:00,
2013-06-13 17:19:00,78.3,59.8,29.94,NNE,24,1.0,2.0,53,0.00,,,0.14,Wunderground v.1.15,2013-06-13 22:19:00,
2013-06-13 17:21:00,78.1,59.6,29.94,NNE,22,1.0,3.0,53,0.00,,,0.14,Wunderground v.1.15,2013-06-13 22:21:00,
2013-06-13 17:22:00,78.1,59.6,29.94,NNE,22,1.0,3.0,53,0.00,,,0.14,Wunderground v.1.15,2013-06-13 22:22:00,
2013-06-13 17:24:00,78.0,59.5,29.94,NNE,20,1.0,3.0,53,0.00,,,0.14,Wunderground v.1.15,2013-06-13 22:24:00,
2013-06-13 17:27:00,77.8,60.8,29.94,NNE,18,1.0,3.0,56,0.00,,,0.14,Wunderground v.1.15,2013-06-13 22:27:00,
2013-06-13 17:29:00,77.7,59.7,29.94,NNE,15,1.0,3.0,54,0.00,,,0.14,Wunderground v.1.15,2013-06-13 22:29:00,
2013-06-13 17:33:00,77.5,59.0,29.93,NNE,12,1.0,4.0,53,0.00,,,0.14,Wunderground v.1.15,2013-06-13 22:33:00,
2013-06-13 17:34:00,77.5,59.0,29.94,North,355,1.0,4.0,53,0.00,,,0.14,Wunderground v.1.15,2013-06-13 22:34:00,
2013-06-13 17:37:00,77.3,59.4,29.94,North,351,1.0,5.0,54,0.00,,,0.14,Wunderground v.1.15,2013-06-13 22:37:00,
2013-06-13 17:39:00,77.3,59.4,29.93,North,355,1.0,5.0,54,0.00,,,0.14,Wunderground v.1.15,2013-06-13 22:39:00,
2013-06-13 17:42:00,77.6,59.6,29.93,North,350,1.0,3.0,54,0.00,,,0.14,Wunderground v.1.15,2013-06-13 22:42:00,
2013-06-13 17:43:00,77.7,60.8,29.93,North,349,1.0,3.0,56,0.00,,,0.14,Wunderground v.1.15,2013-06-13 22:43:00,
2013-06-13 17:45:00,78.0,58.4,29.93,NNE,23,1.0,4.0,51,0.00,,,0.14,Wunderground v.1.15,2013-06-13 22:45:00,
2013-06-13 17:46:00,78.2,59.1,29.93,NNE,22,1.0,4.0,52,0.00,,,0.14,Wunderground v.1.15,2013-06-13 22:46:00,
2013-06-13 17:48:00,78.4,60.9,29.93,NNE,22,1.0,4.0,55,0.00,,,0.14,Wunderground v.1.15,2013-06-13 22:48:00,
2013-06-13 17:49:00,78.5,59.4,29.93,NNE,22,2.0,5.0,52,0.00,,,0.14,Wunderground v.1.15,2013-06-13 22:49:00,
2013-06-13 17:52:00,78.9,59.8,29.93,North,355,2.0,5.0,52,0.00,,,0.14,Wunderground v.1.15,2013-06-13 22:52:00,
2013-06-13 17:54:00,79.1,60.0,29.93,WNW,301,3.0,9.0,52,0.00,,,0.14,Wunderground v.1.15,2013-06-13 22:54:00,
2013-06-13 17:55:00,79.2,59.5,29.93,NNW,342,3.0,9.0,51,0.00,,,0.14,Wunderground v.1.15,2013-06-13 22:55:00,
2013-06-13 17:56:00,79.3,60.1,29.93,NNW,336,3.0,9.0,52,0.00,,,0.14,Wunderground v.1.15,2013-06-13 22:56:00,
2013-06-13 17:57:00,79.4,59.7,29.93,NNW,334,3.0,9.0,51,0.00,,,0.14,Wunderground v.1.15,2013-06-13 22:57:00,
2013-06-13 18:00:00,79.6,59.3,29.93,NNW,346,3.0,3.0,50,0.00,,,0.14,Wunderground v.1.15,2013-06-13 23:00:00,
2013-06-13 18:02:00,79.7,60.5,29.94,NNW,344,3.0,4.0,52,0.00,,,0.14,Wunderground v.1.15,2013-06-13 23:02:00,
2013-06-13 18:04:00,79.8,60.6,29.93,NNW,343,3.0,6.0,52,0.00,,,0.14,Wunderground v.1.15,2013-06-13 23:04:00,
2013-06-13 18:06:00,79.8,58.9,29.94,NNW,330,3.0,10.0,49,0.00,,,0.14,Wunderground v.1.15,2013-06-13 23:06:00,
2013-06-13 18:08:00,79.8,58.4,29.94,NNW,342,3.0,10.0,48,0.00,,,0.14,Wunderground v.1.15,2013-06-13 23:08:00,
2013-06-13 18:09:00,79.8,58.9,29.94,NNW,344,3.0,10.0,49,0.00,,,0.14,Wunderground v.1.15,2013-06-13 23:09:00,
2013-06-13 18:10:00,79.8,57.8,29.94,NNE,21,3.0,6.0,47,0.00,,,0.14,Wunderground v.1.15,2013-06-13 23:10:00,
2013-06-13 18:11:00,79.8,58.4,29.94,NNE,27,3.0,6.0,48,0.00,,,0.14,Wunderground v.1.15,2013-06-13 23:11:00,
2013-06-13 18:15:00,79.8,59.5,29.94,North,351,3.0,6.0,50,0.00,,,0.14,Wunderground v.1.15,2013-06-13 23:15:00,
2013-06-13 18:16:00,79.9,58.5,29.94,NNW,335,3.0,6.0,48,0.00,,,0.14,Wunderground v.1.15,2013-06-13 23:16:00,
2013-06-13 18:20:00,79.8,58.4,29.93,NNW,329,4.0,4.0,48,0.00,,,0.14,Wunderground v.1.15,2013-06-13 23:20:00,
2013-06-13 18:23:00,79.5,57.5,29.94,North,5,4.0,4.0,47,0.00,,,0.14,Wunderground v.1.15,2013-06-13 23:23:00,
2013-06-13 18:26:00,78.9,57.5,29.94,North,355,4.0,4.0,48,0.00,,,0.14,Wunderground v.1.15,2013-06-13 23:26:00,
2013-06-13 18:27:00,78.8,57.4,29.94,North,355,3.0,4.0,48,0.00,,,0.14,Wunderground v.1.15,2013-06-13 23:27:00,
2013-06-13 18:32:00,78.0,58.4,29.94,NNW,344,2.0,4.0,51,0.00,,,0.14,Wunderground v.1.15,2013-06-13 23:32:00,
2013-06-13 18:34:00,77.8,58.2,29.94,NNW,344,2.0,4.0,51,0.00,,,0.14,Wunderground v.1.15,2013-06-13 23:34:00,
2013-06-13 18:35:00,77.6,58.6,29.95,NNW,344,1.0,4.0,52,0.00,,,0.14,Wunderground v.1.15,2013-06-13 23:35:00,
2013-06-13 18:37:00,77.5,58.5,29.94,NNW,342,1.0,4.0,52,0.00,,,0.14,Wunderground v.1.15,2013-06-13 23:37:00,
2013-06-13 18:39:00,77.3,58.3,29.95,NNW,344,1.0,4.0,52,0.00,,,0.14,Wunderground v.1.15,2013-06-13 23:39:00,
2013-06-13 18:40:00,77.3,58.8,29.95,NNW,344,1.0,1.0,53,0.00,,,0.14,Wunderground v.1.15,2013-06-13 23:40:00,
2013-06-13 18:42:00,77.3,58.8,29.95,NNW,340,1.0,1.0,53,0.00,,,0.14,Wunderground v.1.15,2013-06-13 23:42:00,
2013-06-13 18:44:00,77.3,59.4,29.95,NNW,340,2.0,3.0,54,0.00,,,0.14,Wunderground v.1.15,2013-06-13 23:44:00,
2013-06-13 18:45:00,77.3,58.8,29.95,NNW,340,1.0,3.0,53,0.00,,,0.14,Wunderground v.1.15,2013-06-13 23:45:00,
2013-06-13 18:46:00,77.3,59.9,29.95,NNW,340,1.0,3.0,55,0.00,,,0.14,Wunderground v.1.15,2013-06-13 23:46:00,
2013-06-13 18:49:00,77.4,58.9,29.96,NNW,333,2.0,5.0,53,0.00,,,0.14,Wunderground v.1.15,2013-06-13 23:49:00,
2013-06-13 18:51:00,77.4,58.4,29.96,NNW,333,2.0,5.0,52,0.00,,,0.14,Wunderground v.1.15,2013-06-13 23:51:00,
2013-06-13 18:52:00,77.4,58.4,29.96,NNW,333,2.0,5.0,52,0.00,,,0.14,Wunderground v.1.15,2013-06-13 23:52:00,
2013-06-13 18:53:00,77.4,57.9,29.96,NNW,335,2.0,5.0,51,0.00,,,0.14,Wunderground v.1.15,2013-06-13 23:53:00,
2013-06-13 18:55:00,77.4,57.3,29.96,NNW,335,2.0,5.0,50,0.00,,,0.14,Wunderground v.1.15,2013-06-13 23:55:00,
2013-06-13 19:00:00,77.4,58.9,29.96,North,349,2.0,2.0,53,0.00,,,0.14,Wunderground v.1.15,2013-06-14 00:00:00,
2013-06-13 19:01:00,77.4,57.9,29.96,North,349,2.0,2.0,51,0.00,,,0.14,Wunderground v.1.15,2013-06-14 00:01:00,
2013-06-13 19:04:00,77.4,58.4,29.96,North,349,1.0,2.0,52,0.00,,,0.14,Wunderground v.1.15,2013-06-14 00:04:00,
2013-06-13 19:05:00,77.4,57.9,29.96,North,349,1.0,2.0,51,0.00,,,0.14,Wunderground v.1.15,2013-06-14 00:05:00,
2013-06-13 19:06:00,77.4,58.4,29.96,NNW,348,1.0,2.0,52,0.00,,,0.14,Wunderground v.1.15,2013-06-14 00:06:00,
2013-06-13 19:07:00,77.4,58.4,29.96,NNW,348,1.0,2.0,52,0.00,,,0.14,Wunderground v.1.15,2013-06-14 00:07:00,
2013-06-13 19:10:00,77.2,58.2,29.97,NNW,346,1.0,2.0,52,0.00,,,0.14,Wunderground v.1.15,2013-06-14 00:10:00,
2013-06-13 19:12:00,77.1,58.6,29.97,NNW,345,1.0,2.0,53,0.00,,,0.14,Wunderground v.1.15,2013-06-14 00:12:00,
2013-06-13 19:13:00,77.1,58.1,29.96,NNW,345,1.0,2.0,52,0.00,,,0.14,Wunderground v.1.15,2013-06-14 00:13:00,
2013-06-13 19:16:00,76.9,58.5,29.97,NNW,340,1.0,3.0,53,0.00,,,0.14,Wunderground v.1.15,2013-06-14 00:16:00,
2013-06-13 19:19:00,76.7,57.7,29.96,NNW,338,2.0,3.0,52,0.00,,,0.14,Wunderground v.1.15,2013-06-14 00:19:00,
2013-06-13 19:21:00,76.6,58.2,29.96,NNW,338,1.0,3.0,53,0.00,,,0.14,Wunderground v.1.15,2013-06-14 00:21:00,
2013-06-13 19:22:00,76.5,58.1,29.97,NNW,338,1.0,3.0,53,0.00,,,0.14,Wunderground v.1.15,2013-06-14 00:22:00,
2013-06-13 19:23:00,76.5,58.1,29.96,NNW,338,1.0,3.0,53,0.00,,,0.14,Wunderground v.1.15,2013-06-14 00:23:00,
2013-06-13 19:25:00,76.3,58.4,29.97,NNW,338,1.0,3.0,54,0.00,,,0.14,Wunderground v.1.15,2013-06-14 00:25:00,
2013-06-13 19:26:00,76.3,57.9,29.97,NNW,336,1.0,3.0,53,0.00,,,0.14,Wunderground v.1.15,2013-06-14 00:26:00,
2013-06-13 19:27:00,76.3,57.9,29.97,NNW,336,1.0,3.0,53,0.00,,,0.14,Wunderground v.1.15,2013-06-14 00:27:00,
2013-06-13 19:28:00,76.2,57.8,29.97,NNW,337,1.0,3.0,53,0.00,,,0.14,Wunderground v.1.15,2013-06-14 00:28:00,
2013-06-13 19:31:00,76.1,58.8,29.97,NNW,337,1.0,1.0,55,0.00,,,0.14,Wunderground v.1.15,2013-06-14 00:31:00,
2013-06-13 19:33:00,76.0,58.7,29.97,NNW,336,1.0,3.0,55,0.00,,,0.14,Wunderground v.1.15,2013-06-14 00:33:00,
2013-06-13 19:34:00,75.9,59.1,29.97,NNW,336,1.0,3.0,56,0.00,,,0.14,Wunderground v.1.15,2013-06-14 00:34:00,
2013-06-13 19:36:00,75.8,58.5,29.97,NNW,336,1.0,3.0,55,0.00,,,0.14,Wunderground v.1.15,2013-06-14 00:36:00,
2013-06-13 19:38:00,75.7,58.9,29.97,NNW,336,0.0,3.0,56,0.00,,,0.14,Wunderground v.1.15,2013-06-14 00:38:00,
2013-06-13 19:39:00,75.7,58.4,29.97,NNW,336,0.0,3.0,55,0.00,,,0.14,Wunderground v.1.15,2013-06-14 00:39:00,
2013-06-13 19:41:00,75.5,58.2,29.97,NNW,336,0.0,0.0,55,0.00,,,0.14,Wunderground v.1.15,2013-06-14 00:41:00,
2013-06-13 19:42:00,75.5,58.2,29.97,NNW,336,0.0,0.0,55,0.00,,,0.14,Wunderground v.1.15,2013-06-14 00:42:00,
2013-06-13 19:43:00,75.5,58.7,29.97,NNW,336,0.0,0.0,56,0.00,,,0.14,Wunderground v.1.15,2013-06-14 00:43:00,
2013-06-13 19:44:00,75.4,58.6,29.97,NNW,334,0.0,0.0,56,0.00,,,0.14,Wunderground v.1.15,2013-06-14 00:44:00,
2013-06-13 19:47:00,75.3,58.5,29.97,NNW,334,0.0,1.0,56,0.00,,,0.14,Wunderground v.1.15,2013-06-14 00:47:00,
2013-06-13 19:50:00,75.1,58.3,29.97,NNW,334,0.0,0.0,56,0.00,,,0.14,Wunderground v.1.15,2013-06-14 00:50:00,
2013-06-13 19:53:00,75.0,58.7,29.97,NNW,334,0.0,1.0,57,0.00,,,0.14,Wunderground v.1.15,2013-06-14 00:53:00,
2013-06-13 19:54:00,75.0,58.7,29.97,NNW,334,0.0,1.0,57,0.00,,,0.14,Wunderground v.1.15,2013-06-14 00:54:00,
2013-06-13 19:57:00,74.8,58.1,29.97,NNW,333,1.0,1.0,56,0.00,,,0.14,Wunderground v.1.15,2013-06-14 00:57:00,
2013-06-13 19:58:00,74.8,58.1,29.97,NNW,332,0.0,1.0,56,0.00,,,0.14,Wunderground v.1.15,2013-06-14 00:58:00,
2013-06-13 20:03:00,74.6,57.9,29.97,NNW,332,1.0,4.0,56,0.00,,,0.14,Wunderground v.1.15,2013-06-14 01:03:00,
2013-06-13 20:04:00,74.6,58.4,29.97,NNW,333,1.0,4.0,57,0.00,,,0.14,Wunderground v.1.15,2013-06-14 01:04:00,
2013-06-13 20:06:00,74.6,58.4,29.97,NNW,332,1.0,4.0,57,0.00,,,0.14,Wunderground v.1.15,2013-06-14 01:06:00,
2013-06-13 20:08:00,74.5,58.3,29.98,NNW,332,0.0,4.0,57,0.00,,,0.14,Wunderground v.1.15,2013-06-14 01:08:00,
2013-06-13 20:09:00,74.5,58.3,29.97,NNW,333,0.0,4.0,57,0.00,,,0.14,Wunderground v.1.15,2013-06-14 01:09:00,
2013-06-13 20:11:00,74.4,58.7,29.97,NNW,333,0.0,1.0,58,0.00,,,0.14,Wunderground v.1.15,2013-06-14 01:11:00,
2013-06-13 20:16:00,74.3,59.0,29.98,NNW,333,0.0,1.0,59,0.00,,,0.14,Wunderground v.1.15,2013-06-14 01:16:00,
2013-06-13 20:17:00,74.3,59.0,29.97,NNW,332,0.0,1.0,59,0.00,,,0.14,Wunderground v.1.15,2013-06-14 01:17:00,
2013-06-13 20:18:00,74.2,58.9,29.97,NNW,332,0.0,1.0,59,0.00,,,0.14,Wunderground v.1.15,2013-06-14 01:18:00,
2013-06-13 20:19:00,74.2,58.9,29.97,NNW,333,0.0,1.0,59,0.00,,,0.14,Wunderground v.1.15,2013-06-14 01:19:00,
2013-06-13 20:23:00,74.1,59.3,29.97,NNW,332,0.0,0.0,60,0.00,,,0.14,Wunderground v.1.15,2013-06-14 01:23:00,
2013-06-13 20:24:00,74.1,59.3,29.97,NNW,333,0.0,0.0,60,0.00,,,0.14,Wunderground v.1.15,2013-06-14 01:24:00,
2013-06-13 20:25:00,74.0,59.7,29.97,NNW,333,0.0,0.0,61,0.00,,,0.14,Wunderground v.1.15,2013-06-14 01:25:00,
2013-06-13 20:28:00,73.9,60.1,29.97,NNW,333,0.0,0.0,62,0.00,,,0.14,Wunderground v.1.15,2013-06-14 01:28:00,
2013-06-13 20:29:00,73.9,60.1,29.97,NNW,332,0.0,0.0,62,0.00,,,0.14,Wunderground v.1.15,2013-06-14 01:29:00,
2013-06-13 20:30:00,73.8,60.0,29.97,NNW,333,0.0,0.0,62,0.00,,,0.14,Wunderground v.1.15,2013-06-14 01:30:00,
2013-06-13 20:31:00,73.7,59.9,29.98,NNW,333,0.0,0.0,62,0.00,,,0.14,Wunderground v.1.15,2013-06-14 01:31:00,
2013-06-13 20:34:00,73.5,59.7,29.97,NNW,332,0.0,0.0,62,0.00,,,0.14,Wunderground v.1.15,2013-06-14 01:34:00,
2013-06-13 20:36:00,73.3,59.5,29.98,NNW,332,0.0,0.0,62,0.00,,,0.14,Wunderground v.1.15,2013-06-14 01:36:00,
2013-06-13 20:39:00,73.0,59.7,29.97,NNW,332,0.0,0.0,63,0.00,,,0.14,Wunderground v.1.15,2013-06-14 01:39:00,
2013-06-13 20:41:00,72.7,59.4,29.97,NNW,332,0.0,0.0,63,0.00,,,0.14,Wunderground v.1.15,2013-06-14 01:41:00,
2013-06-13 20:44:00,72.4,59.1,29.98,NNW,332,0.0,0.0,63,0.00,,,0.14,Wunderground v.1.15,2013-06-14 01:44:00,
2013-06-13 20:47:00,72.1,59.2,29.98,NNW,333,0.0,0.0,64,0.00,,,0.14,Wunderground v.1.15,2013-06-14 01:47:00,
2013-06-13 20:48:00,71.9,59.1,29.98,NNW,332,0.0,0.0,64,0.00,,,0.14,Wunderground v.1.15,2013-06-14 01:48:00,
2013-06-13 20:50:00,71.7,58.9,29.98,NNW,332,0.0,0.0,64,0.00,,,0.14,Wunderground v.1.15,2013-06-14 01:50:00,
2013-06-13 20:51:00,71.5,58.7,29.98,NNW,333,0.0,0.0,64,0.00,,,0.14,Wunderground v.1.15,2013-06-14 01:51:00,
2013-06-13 20:53:00,71.4,59.0,29.98,NNW,333,0.0,0.0,65,0.00,,,0.14,Wunderground v.1.15,2013-06-14 01:53:00,
2013-06-13 20:54:00,71.2,58.8,29.98,NNW,332,0.0,0.0,65,0.00,,,0.14,Wunderground v.1.15,2013-06-14 01:54:00,
2013-06-13 20:55:00,71.1,58.7,29.98,NNW,333,0.0,0.0,65,0.00,,,0.14,Wunderground v.1.15,2013-06-14 01:55:00,
2013-06-13 20:58:00,70.9,59.0,29.98,NNW,333,0.0,0.0,66,0.00,,,0.14,Wunderground v.1.15,2013-06-14 01:58:00,
2013-06-13 21:00:00,70.7,58.8,29.98,NNW,333,0.0,0.0,66,0.00,,,0.14,Wunderground v.1.15,2013-06-14 02:00:00,
2013-06-13 21:01:00,70.6,59.1,29.98,NNW,333,0.0,0.0,67,0.00,,,0.14,Wunderground v.1.15,2013-06-14 02:01:00,
2013-06-13 21:03:00,70.4,58.9,29.98,NNW,333,0.0,0.0,67,0.00,,,0.14,Wunderground v.1.15,2013-06-14 02:03:00,
2013-06-13 21:05:00,70.2,59.1,29.98,NNW,333,0.0,0.0,68,0.00,,,0.14,Wunderground v.1.15,2013-06-14 02:05:00,
2013-06-13 21:10:00,69.7,59.1,29.98,NNW,333,0.0,0.0,69,0.00,,,0.14,Wunderground v.1.15,2013-06-14 02:10:00,
2013-06-13 21:11:00,69.5,59.3,29.98,NNW,333,0.0,0.0,70,0.00,,,0.14,Wunderground v.1.15,2013-06-14 02:11:00,
2013-06-13 21:13:00,69.4,59.2,29.98,NNW,333,0.0,0.0,70,0.00,,,0.14,Wunderground v.1.15,2013-06-14 02:13:00,
2013-06-13 21:15:00,69.2,59.0,29.98,NNW,333,0.0,0.0,70,0.00,,,0.14,Wunderground v.1.15,2013-06-14 02:15:00,
2013-06-13 21:16:00,69.1,59.3,29.98,NNW,332,0.0,0.0,71,0.00,,,0.14,Wunderground v.1.15,2013-06-14 02:16:00,
2013-06-13 21:19:00,68.9,59.1,29.98,NNW,333,0.0,0.0,71,0.00,,,0.14,Wunderground v.1.15,2013-06-14 02:19:00,
2013-06-13 21:20:00,68.8,59.0,29.98,NNW,332,0.0,0.0,71,0.00,,,0.14,Wunderground v.1.15,2013-06-14 02:20:00,
2013-06-13 21:23:00,68.5,59.1,29.98,NNW,332,0.0,0.0,72,0.00,,,0.14,Wunderground v.1.15,2013-06-14 02:23:00,
2013-06-13 21:25:00,68.4,59.4,29.98,NNW,333,0.0,0.0,73,0.00,,,0.14,Wunderground v.1.15,2013-06-14 02:25:00,
2013-06-13 21:26:00,68.3,59.3,29.98,NNW,333,0.0,0.0,73,0.00,,,0.14,Wunderground v.1.15,2013-06-14 02:26:00,
2013-06-13 21:28:00,68.1,59.1,29.98,NNW,333,0.0,0.0,73,0.00,,,0.14,Wunderground v.1.15,2013-06-14 02:28:00,
2013-06-13 21:30:00,68.0,59.4,29.98,NNW,333,0.0,0.0,74,0.00,,,0.14,Wunderground v.1.15,2013-06-14 02:30:00,
2013-06-13 21:32:00,67.8,59.2,29.99,NNW,333,0.0,0.0,74,0.00,,,0.14,Wunderground v.1.15,2013-06-14 02:32:00,
2013-06-13 21:33:00,67.7,59.1,29.99,NNW,332,0.0,0.0,74,0.00,,,0.14,Wunderground v.1.15,2013-06-14 02:33:00,
2013-06-13 21:35:00,67.6,59.0,29.99,NNW,333,0.0,0.0,74,0.00,,,0.14,Wunderground v.1.15,2013-06-14 02:35:00,
2013-06-13 21:36:00,67.5,58.9,29.98,NNW,333,0.0,0.0,74,0.00,,,0.14,Wunderground v.1.15,2013-06-14 02:36:00,
2013-06-13 21:41:00,67.1,59.3,29.98,NNW,333,0.0,0.0,76,0.00,,,0.14,Wunderground v.1.15,2013-06-14 02:41:00,
2013-06-13 21:43:00,67.0,59.2,29.98,NNW,333,0.0,0.0,76,0.00,,,0.14,Wunderground v.1.15,2013-06-14 02:43:00,
2013-06-13 21:44:00,66.9,59.5,29.99,NNW,333,0.0,0.0,77,0.00,,,0.14,Wunderground v.1.15,2013-06-14 02:44:00,
2013-06-13 21:46:00,66.7,59.6,29.98,NNW,333,0.0,0.0,78,0.00,,,0.14,Wunderground v.1.15,2013-06-14 02:46:00,
2013-06-13 21:50:00,66.6,59.9,29.99,NNE,17,0.0,5.0,79,0.00,,,0.14,Wunderground v.1.15,2013-06-14 02:50:00,
2013-06-13 21:51:00,66.7,59.6,29.99,NNE,24,1.0,5.0,78,0.00,,,0.14,Wunderground v.1.15,2013-06-14 02:51:00,
2013-06-13 21:53:00,66.7,59.6,29.99,NNE,26,1.0,5.0,78,0.00,,,0.14,Wunderground v.1.15,2013-06-14 02:53:00,
2013-06-13 21:55:00,66.8,59.4,29.99,NE,49,2.0,6.0,77,0.00,,,0.14,Wunderground v.1.15,2013-06-14 02:55:00,
2013-06-13 21:56:00,67.0,59.5,29.99,East,79,2.0,6.0,77,0.00,,,0.14,Wunderground v.1.15,2013-06-14 02:56:00,
2013-06-13 21:57:00,67.0,59.5,29.99,ENE,78,2.0,6.0,77,0.00,,,0.14,Wunderground v.1.15,2013-06-14 02:57:00,
2013-06-13 22:00:00,67.3,59.5,29.99,ENE,67,3.0,3.0,76,0.00,,,0.14,Wunderground v.1.15,2013-06-14 03:00:00,
2013-06-13 22:01:00,67.4,59.9,29.99,ENE,74,3.0,3.0,77,0.00,,,0.14,Wunderground v.1.15,2013-06-14 03:01:00,
2013-06-13 22:02:00,67.4,59.9,29.99,ENE,72,2.0,3.0,77,0.00,,,0.14,Wunderground v.1.15,2013-06-14 03:02:00,
2013-06-13 22:03:00,67.4,59.9,29.99,ENE,69,2.0,3.0,77,0.00,,,0.14,Wunderground v.1.15,2013-06-14 03:03:00,
2013-06-13 22:06:00,67.5,60.0,29.99,East,90,2.0,5.0,77,0.00,,,0.14,Wunderground v.1.15,2013-06-14 03:06:00,
2013-06-13 22:09:00,67.6,60.1,29.99,East,82,2.0,5.0,77,0.00,,,0.14,Wunderground v.1.15,2013-06-14 03:09:00,
2013-06-13 22:11:00,67.6,60.1,29.99,East,82,2.0,2.0,77,0.00,,,0.14,Wunderground v.1.15,2013-06-14 03:11:00,
2013-06-13 22:12:00,67.6,60.1,29.99,East,80,2.0,3.0,77,0.00,,,0.14,Wunderground v.1.15,2013-06-14 03:12:00,
2013-06-13 22:14:00,67.6,60.5,29.99,ENE,78,2.0,3.0,78,0.00,,,0.14,Wunderground v.1.15,2013-06-14 03:14:00,
2013-06-13 22:15:00,67.6,60.1,29.99,NE,53,2.0,5.0,77,0.00,,,0.14,Wunderground v.1.15,2013-06-14 03:15:00,
2013-06-13 22:20:00,67.5,60.4,29.99,ENE,73,3.0,3.0,78,0.00,,,0.14,Wunderground v.1.15,2013-06-14 03:20:00,
2013-06-13 22:21:00,67.5,60.4,29.99,East,80,3.0,3.0,78,0.00,,,0.14,Wunderground v.1.15,2013-06-14 03:21:00,
2013-06-13 22:22:00,67.5,60.4,29.99,East,79,3.0,3.0,78,0.00,,,0.14,Wunderground v.1.15,2013-06-14 03:22:00,
2013-06-13 22:25:00,67.5,60.4,29.99,East,82,3.0,5.0,78,0.00,,,0.14,Wunderground v.1.15,2013-06-14 03:25:00,
2013-06-13 22:27:00,67.5,60.4,29.99,East,98,3.0,5.0,78,0.00,,,0.14,Wunderground v.1.15,2013-06-14 03:27:00,
2013-06-13 22:28:00,67.4,60.3,29.99,East,97,2.0,5.0,78,0.00,,,0.14,Wunderground v.1.15,2013-06-14 03:28:00,
2013-06-13 22:31:00,67.4,60.3,29.99,East,96,2.0,4.0,78,0.00,,,0.14,Wunderground v.1.15,2013-06-14 03:31:00,
2013-06-13 22:33:00,67.3,60.2,29.99,East,96,2.0,4.0,78,0.00,,,0.14,Wunderground v.1.15,2013-06-14 03:33:00,
2013-06-13 22:34:00,67.3,60.2,29.99,East,96,2.0,4.0,78,0.00,,,0.14,Wunderground v.1.15,2013-06-14 03:34:00,
2013-06-13 22:35:00,67.2,60.1,29.99,East,96,2.0,4.0,78,0.00,,,0.14,Wunderground v.1.15,2013-06-14 03:35:00,
2013-06-13 22:36:00,67.2,60.1,29.99,East,94,2.0,4.0,78,0.00,,,0.14,Wunderground v.1.15,2013-06-14 03:36:00,
2013-06-13 22:39:00,67.1,60.0,29.99,East,90,1.0,4.0,78,0.00,,,0.14,Wunderground v.1.15,2013-06-14 03:39:00,
2013-06-13 22:41:00,67.0,59.9,29.99,East,94,1.0,4.0,78,0.00,,,0.14,Wunderground v.1.15,2013-06-14 03:41:00,
2013-06-13 22:44:00,66.9,60.2,29.99,East,93,1.0,4.0,79,0.00,,,0.14,Wunderground v.1.15,2013-06-14 03:44:00,
2013-06-13 22:46:00,66.8,60.1,29.99,East,93,1.0,4.0,79,0.00,,,0.14,Wunderground v.1.15,2013-06-14 03:46:00,
2013-06-13 22:47:00,66.8,60.1,29.99,East,93,1.0,4.0,79,0.00,,,0.14,Wunderground v.1.15,2013-06-14 03:47:00,
2013-06-13 22:51:00,66.7,60.0,29.99,East,91,1.0,1.0,79,0.00,,,0.14,Wunderground v.1.15,2013-06-14 03:51:00,
2013-06-13 22:52:00,66.6,59.9,29.99,East,91,1.0,1.0,79,0.00,,,0.14,Wunderground v.1.15,2013-06-14 03:52:00,
2013-06-13 22:53:00,66.6,59.9,29.99,East,91,0.0,1.0,79,0.00,,,0.14,Wunderground v.1.15,2013-06-14 03:53:00,
2013-06-13 22:55:00,66.6,59.9,29.99,East,91,0.0,1.0,79,0.00,,,0.14,Wunderground v.1.15,2013-06-14 03:55:00,
2013-06-13 22:59:00,66.3,59.9,29.99,East,91,0.0,1.0,80,0.00,,,0.14,Wunderground v.1.15,2013-06-14 03:59:00,
2013-06-13 23:00:00,66.3,59.9,29.99,East,91,0.0,0.0,80,0.00,,,0.14,Wunderground v.1.15,2013-06-14 04:00:00,
2013-06-13 23:01:00,66.2,59.8,29.99,East,91,0.0,0.0,80,0.00,,,0.14,Wunderground v.1.15,2013-06-14 04:01:00,
2013-06-13 23:02:00,66.2,59.8,29.99,East,91,0.0,0.0,80,0.00,,,0.14,Wunderground v.1.15,2013-06-14 04:02:00,
2013-06-13 23:03:00,66.2,59.8,29.99,East,91,0.0,0.0,80,0.00,,,0.14,Wunderground v.1.15,2013-06-14 04:03:00,
2013-06-13 23:07:00,65.9,59.6,29.99,East,91,0.0,2.0,80,0.00,,,0.14,Wunderground v.1.15,2013-06-14 04:07:00,
2013-06-13 23:08:00,65.9,59.6,29.99,East,91,0.0,2.0,80,0.00,,,0.14,Wunderground v.1.15,2013-06-14 04:08:00,
2013-06-13 23:10:00,65.8,59.5,29.99,East,91,0.0,3.0,80,0.00,,,0.14,Wunderground v.1.15,2013-06-14 04:10:00,
2013-06-13 23:11:00,65.7,59.7,30.00,East,91,0.0,3.0,81,0.00,,,0.14,Wunderground v.1.15,2013-06-14 04:11:00,
2013-06-13 23:13:00,65.6,59.6,30.00,East,91,0.0,3.0,81,0.00,,,0.14,Wunderground v.1.15,2013-06-14 04:13:00,
2013-06-13 23:16:00,65.4,59.4,30.00,East,91,0.0,3.0,81,0.00,,,0.14,Wunderground v.1.15,2013-06-14 04:16:00,
2013-06-13 23:17:00,65.4,59.4,30.00,East,91,0.0,3.0,81,0.00,,,0.14,Wunderground v.1.15,2013-06-14 04:17:00,
2013-06-13 23:18:00,65.4,59.4,30.00,East,91,0.0,3.0,81,0.00,,,0.14,Wunderground v.1.15,2013-06-14 04:18:00,
2013-06-13 23:19:00,65.3,59.3,30.00,East,91,0.0,3.0,81,0.00,,,0.14,Wunderground v.1.15,2013-06-14 04:19:00,
2013-06-13 23:22:00,65.2,59.2,30.00,East,91,0.0,3.0,81,0.00,,,0.14,Wunderground v.1.15,2013-06-14 04:22:00,
2013-06-13 23:23:00,65.1,59.5,30.00,East,91,0.0,3.0,82,0.00,,,0.14,Wunderground v.1.15,2013-06-14 04:23:00,
2013-06-13 23:24:00,65.1,59.5,30.00,East,91,0.0,3.0,82,0.00,,,0.14,Wunderground v.1.15,2013-06-14 04:24:00,
2013-06-13 23:25:00,65.0,59.4,30.00,East,91,0.0,3.0,82,0.00,,,0.14,Wunderground v.1.15,2013-06-14 04:25:00,
2013-06-13 23:27:00,65.0,59.4,30.00,East,91,0.0,3.0,82,0.00,,,0.14,Wunderground v.1.15,2013-06-14 04:27:00,
2013-06-13 23:28:00,64.9,59.3,30.00,East,91,0.0,3.0,82,0.00,,,0.14,Wunderground v.1.15,2013-06-14 04:28:00,
2013-06-13 23:30:00,64.9,59.3,29.99,East,91,0.0,0.0,82,0.00,,,0.14,Wunderground v.1.15,2013-06-14 04:30:00,
2013-06-13 23:33:00,64.7,59.1,29.99,East,91,1.0,2.0,82,0.00,,,0.14,Wunderground v.1.15,2013-06-14 04:33:00,
2013-06-13 23:35:00,64.7,59.1,29.99,East,91,1.0,2.0,82,0.00,,,0.14,Wunderground v.1.15,2013-06-14 04:35:00,
2013-06-13 23:36:00,64.6,59.0,29.99,East,91,1.0,2.0,82,0.00,,,0.14,Wunderground v.1.15,2013-06-14 04:36:00,
2013-06-13 23:37:00,64.6,59.0,29.99,East,91,1.0,2.0,82,0.00,,,0.14,Wunderground v.1.15,2013-06-14 04:37:00,
2013-06-13 23:38:00,64.5,58.9,30.00,East,91,1.0,2.0,82,0.00,,,0.14,Wunderground v.1.15,2013-06-14 04:38:00,
2013-06-13 23:40:00,64.4,58.8,30.00,East,92,1.0,1.0,82,0.00,,,0.14,Wunderground v.1.15,2013-06-14 04:40:00,
2013-06-13 23:42:00,64.4,58.8,30.00,East,90,1.0,1.0,82,0.00,,,0.14,Wunderground v.1.15,2013-06-14 04:42:00,
2013-06-13 23:43:00,64.4,58.8,29.99,East,90,1.0,4.0,82,0.00,,,0.14,Wunderground v.1.15,2013-06-14 04:43:00,
2013-06-13 23:45:00,64.3,59.0,30.00,East,90,1.0,4.0,83,0.00,,,0.14,Wunderground v.1.15,2013-06-14 04:45:00,
2013-06-13 23:46:00,64.3,59.0,29.99,East,90,1.0,4.0,83,0.00,,,0.14,Wunderground v.1.15,2013-06-14 04:46:00,
2013-06-13 23:48:00,64.2,58.9,29.99,East,90,1.0,4.0,83,0.00,,,0.14,Wunderground v.1.15,2013-06-14 04:48:00,
2013-06-13 23:52:00,64.1,58.8,30.00,East,92,1.0,1.0,83,0.00,,,0.14,Wunderground v.1.15,2013-06-14 04:52:00,
2013-06-13 23:54:00,64.0,58.7,30.00,East,88,1.0,2.0,83,0.00,,,0.14,Wunderground v.1.15,2013-06-14 04:54:00,
2013-06-13 23:55:00,64.0,58.7,30.00,East,88,1.0,2.0,83,0.00,,,0.14,Wunderground v.1.15,2013-06-14 04:55:00,
2013-06-13 23:57:00,64.0,58.7,30.00,East,88,1.0,2.0,83,0.00,,,0.14,Wunderground v.1.15,2013-06-14 04:57:00,
2013-06-13 23:58:00,64.0,58.7,30.00,East,84,1.0,2.0,83,0.00,,,0.14,Wunderground v.1.15,2013-06-14 04:58:00,
2013-06-13 23:59:00,63.9,58.6,30.00,East,85,2.0,2.0,83,0.00,,,0.14,Wunderground v.1.15,2013-06-14 04:59:00,